GFSFLT1_sfc_temp_000.txt.gz
Temp
82 82 84 84 84 84 86 85 82 81 84 81 82 81 82 81 81 80 78 78 76 75 76 75 75 74 74 75 72 74 73 72
80 79 81 81 80 82 83 81 76 80 82 78 80 77 79 80 80 76 75 75 75 73 74 74 74 73 72 71 71 70 70 72
77 78 78 79 79 80 78 77 77 77 80 78 76 74 77 76 78 76 76 73 73 73 72 72 72 72 70 70 69 68 69 71
76 76 75 76 74 75 76 76 75 74 75 77 78 78 77 75 74 74 73 71 72 71 71 70 69 69 69 69 69 67 66 69
75 75 74 74 73 74 74 74 74 73 72 72 69 70 68 69 70 71 71 71 70 70 69 68 67 68 66 67 69 67 66 64
71 71 72 73 72 71 72 73 73 72 71 70 70 68 68 70 69 67 68 70 69 69 66 65 65 66 65 63 63 63 63 63
70 71 72 72 72 71 71 72 71 70 70 68 65 64 65 66 66 65 67 67 67 66 64 64 63 62 62 61 60 58 58 57
69 70 71 70 69 69 69 69 69 69 68 66 66 66 65 64 64 64 62 63 63 63 61 61 62 61 60 61 59 57 52 50
68 69 70 69 68 68 68 67 67 68 66 66 68 67 66 65 63 62 60 60 61 60 60 60 60 60 59 58 53 50 52 51
68 69 69 68 67 65 66 66 68 68 67 67 65 64 63 61 60 60 60 60 60 59 58 58 57 57 56 54 51 48 48 47
69 70 67 66 68 67 67 67 67 66 66 65 63 62 61 59 58 57 57 58 58 57 56 56 55 54 52 51 49 48 47 47
68 69 69 69 68 67 66 66 64 64 64 62 61 59 58 58 57 56 56 56 56 56 55 54 52 47 45 45 46 48 49 49
68 68 67 66 65 65 64 63 62 61 60 59 59 58 58 57 55 55 54 53 53 53 50 46 46 46 47 47 48 49 49 48
67 67 65 64 63 62 57 56 57 58 58 58 57 56 55 54 52 51 50 48 47 46 47 46 46 46 48 49 49 49 49 48
63 61 61 60 56 55 55 56 56 56 56 56 55 54 51 49 47 48 49 50 49 50 50 49 48 48 48 49 49 48 47 47
59 58 57 58 57 57 57 56 55 55 54 54 51 52 52 52 51 51 51 50 50 50 49 48 48 48 48 44 46 46 45 45
55 51 53 57 57 57 55 55 55 53 53 50 51 52 52 51 50 50 50 49 49 48 47 47 46 47 36 36 38 42 43 43
48 50 57 57 57 56 56 56 54 52 51 51 51 51 50 49 50 49 48 47 47 46 45 45 44 44 35 35 34 39 40 41
52 55 56 58 59 58 57 56 54 52 51 51 51 50 48 49 48 47 47 47 45 45 44 43 42 43 35 33 32 37 38 39

GFSFLT1_sfc_temp_003.txt.gz
Temp
90 89 90 90 90 89 89 87 86 84 86 83 84 84 83 84 83 82 80 80 78 77 77 76 77 76 76 77 75 76 75 74
87 86 86 86 85 87 88 84 82 84 84 81 81 79 80 81 82 80 78 78 77 75 76 76 75 74 74 74 73 71 72 74
82 83 83 84 84 85 83 81 81 82 83 80 77 76 78 79 80 78 78 76 75 74 73 73 73 72 72 71 70 70 71 72
79 79 79 79 79 80 81 80 78 77 79 79 78 79 78 77 76 76 76 74 74 73 72 72 71 71 70 70 70 68 66 69
80 79 78 76 76 77 78 77 77 76 74 75 72 71 70 71 72 74 73 73 73 73 72 70 68 69 67 68 69 66 65 62
76 76 76 76 75 74 76 76 75 75 74 72 70 69 70 71 71 69 68 71 71 71 70 68 66 66 66 64 63 62 62 61
75 76 76 75 75 74 74 75 74 73 71 72 69 63 63 66 67 66 68 68 68 68 68 66 65 64 63 62 62 60 56 56
74 74 75 73 72 72 73 74 74 75 72 70 69 68 68 67 66 66 63 64 64 64 63 62 62 63 63 61 56 52 48 45
72 72 73 73 72 73 72 72 71 74 72 71 71 70 68 67 65 63 61 61 62 63 62 61 61 61 58 56 55 54 52 50
71 73 72 72 72 72 71 70 72 72 70 70 68 67 65 63 62 61 61 61 62 61 61 60 57 57 53 52 51 49 49 49
72 74 73 73 73 72 71 70 70 70 70 68 66 64 63 62 61 60 60 60 60 58 57 54 52 52 51 48 49 49 48 49
72 72 71 72 73 72 70 70 67 67 67 64 62 62 62 61 60 59 57 56 55 52 51 50 49 47 47 46 48 48 47 47
71 71 69 68 67 68 68 66 63 63 62 62 61 61 61 60 58 56 54 53 52 51 49 48 47 46 46 46 46 47 47 47
67 67 68 67 66 65 63 62 60 59 61 61 60 59 58 57 55 54 53 53 53 52 52 50 49 49 49 49 49 48 48 47
63 62 63 62 60 58 60 61 60 60 60 59 58 56 56 55 54 54 54 54 52 52 52 51 50 50 50 50 49 47 47 48
59 60 60 59 60 61 61 59 59 60 58 58 55 56 56 55 54 53 53 52 52 52 51 50 50 50 48 45 45 43 43 44
56 59 59 59 60 60 61 60 61 60 57 56 56 55 54 53 52 52 52 51 51 50 49 49 48 49 36 36 36 40 40 40
56 57 59 60 61 61 60 61 61 57 57 56 56 54 52 51 52 52 50 49 49 48 48 47 46 45 36 35 34 38 37 38
57 59 60 61 62 62 62 61 60 58 56 55 55 52 51 51 50 50 49 49 48 47 46 45 44 44 36 34 33 36 36 37

GFSFLT1_sfc_temp_006.txt.gz
Temp
86 86 86 86 85 83 81 72 69 73 76 74 74 73 72 73 71 70 71 70 69 67 66 65 65 64 63 63 62 62 62 63
81 81 80 81 80 82 74 74 72 74 74 71 69 67 69 69 71 71 70 69 67 64 64 64 63 62 61 61 60 59 61 60
79 78 78 76 75 74 71 74 74 73 72 70 69 68 69 69 69 67 68 66 66 67 63 63 62 60 59 58 58 57 58 58
75 75 72 72 72 72 73 72 71 68 69 71 69 68 67 65 66 66 66 66 67 65 63 62 60 58 56 56 56 55 53 55
76 73 71 70 69 69 71 71 71 70 69 67 65 64 62 64 64 64 64 64 63 64 62 60 58 56 55 55 59 53 52 50
72 72 71 71 69 68 70 71 71 70 68 66 64 62 61 62 60 60 61 61 60 61 60 57 56 55 55 54 53 51 50 47
72 73 72 70 69 68 69 70 71 70 68 66 63 61 60 59 59 58 57 57 57 58 59 56 55 54 54 52 49 48 45 46
71 72 71 70 69 69 69 69 69 69 67 65 64 62 61 59 57 55 54 54 54 54 55 54 54 53 53 53 51 49 47 43
70 70 70 69 69 69 68 68 67 68 65 64 63 61 59 58 56 55 53 53 53 54 54 54 52 51 49 49 47 47 45 44
70 71 69 70 69 68 66 67 67 66 65 62 59 58 57 56 55 55 53 53 55 52 50 50 51 49 47 46 44 44 44 43
70 69 68 68 68 66 65 65 64 63 61 57 58 57 58 57 56 53 52 52 52 51 49 48 48 48 47 46 44 45 44 43
67 68 67 68 66 66 63 61 61 60 60 58 56 56 56 55 54 51 50 50 49 49 49 48 47 46 44 43 43 44 44 42
66 65 64 64 63 62 62 60 59 59 58 57 56 56 55 53 52 50 49 48 49 48 48 47 46 46 44 43 42 43 43 42
64 63 63 62 62 60 59 59 59 59 59 57 56 54 52 51 51 50 50 48 48 48 47 46 46 45 45 44 43 43 41 40
61 60 60 60 59 59 59 59 57 57 58 57 54 52 51 50 50 49 48 48 47 46 46 46 45 46 46 43 43 40 39 39
58 57 58 59 58 59 60 59 59 57 55 55 53 53 52 51 49 48 48 47 47 46 46 44 44 45 42 37 37 36 35 36
56 57 57 58 58 59 59 58 59 58 57 54 55 53 52 49 48 47 46 46 46 44 43 43 41 46 36 36 34 32 34 33
54 56 58 58 58 58 57 58 59 57 56 56 53 47 47 47 48 48 47 43 43 42 41 42 40 39 37 36 34 32 31 31
56 58 58 58 58 58 57 58 57 56 56 54 50 48 48 48 47 46 45 43 41 40 40 40 38 39 37 37 34 30 29 30

GFSFLT1_sfc_temp_009.txt.gz
Temp
72 72 75 73 68 66 63 63 63 66 67 66 63 63 63 63 62 63 63 62 62 60 59 60 59 58 56 57 55 56 54 55
70 70 68 66 67 66 63 61 64 63 62 59 60 61 61 60 62 63 62 62 63 61 58 58 56 55 54 54 53 53 55 53
67 66 65 64 63 62 61 61 61 61 61 60 61 61 61 60 61 61 61 61 61 62 57 56 55 54 53 52 51 50 50 50
64 63 61 62 58 60 62 62 63 62 61 63 61 60 59 59 59 59 61 59 59 57 55 54 53 52 50 50 50 49 46 48
64 62 59 59 58 60 62 63 64 65 62 59 57 55 54 56 55 55 55 56 56 57 55 53 51 50 50 49 53 47 46 43
61 60 61 60 60 59 60 62 63 64 62 59 56 55 55 55 54 52 52 53 54 55 54 52 50 50 49 47 46 44 44 43
61 61 62 60 60 60 62 62 62 62 61 59 57 55 54 52 50 49 50 50 51 52 53 51 50 48 47 46 45 43 42 45
59 62 61 59 58 58 59 60 62 61 59 57 55 53 52 50 49 48 50 51 48 47 47 46 46 46 46 45 43 43 42 40
59 61 60 61 63 60 59 61 61 60 56 54 53 52 51 54 54 53 49 46 46 46 46 46 46 45 44 43 41 42 44 42
61 64 64 62 61 57 57 57 57 56 54 52 52 54 55 53 53 47 45 45 50 45 44 44 44 44 46 46 44 43 41 39
59 59 57 56 56 54 54 54 54 54 53 53 55 54 54 52 46 45 45 45 45 44 44 43 43 43 43 41 39 39 39 39
55 55 56 55 55 54 52 53 53 52 53 55 54 52 49 47 46 45 45 45 45 45 44 43 43 42 41 40 39 39 39 39
54 55 55 54 52 53 53 52 51 52 53 51 51 50 49 47 46 46 45 45 45 44 43 42 42 41 40 39 37 37 37 36
52 52 53 53 52 52 52 51 51 53 53 50 49 51 47 45 45 45 45 44 43 43 42 41 41 41 40 39 37 36 35 35
51 51 51 51 52 51 51 51 51 51 51 49 48 47 47 45 46 45 45 45 43 42 42 42 41 41 39 37 37 34 33 34
51 50 49 50 50 50 51 50 50 51 49 49 47 46 46 43 43 45 45 44 43 42 42 40 40 39 38 33 33 30 30 30
50 51 51 51 51 50 51 49 49 50 50 51 49 45 44 44 45 44 43 42 41 40 39 39 37 39 35 35 33 28 30 29
49 50 51 50 49 50 47 48 49 48 49 49 46 44 43 43 44 43 42 41 39 37 36 36 35 33 37 37 34 30 28 27
50 49 49 49 48 47 47 48 48 46 45 46 45 43 42 43 42 42 40 40 37 34 33 33 32 36 37 36 34 28 27 27

GFSFLT1_sfc_temp_015.txt.gz
Temp
59 59 59 61 61 61 61 61 61 60 58 58 58 58 57 56 56 57 58 58 58 55 55 52 52 51 50 49 49 49 48 48
58 58 58 58 58 60 61 59 59 58 57 55 56 53 54 55 58 60 57 58 56 52 51 51 50 49 48 48 47 47 47 47
57 57 56 56 57 57 56 57 58 57 56 54 54 54 56 59 59 55 54 53 53 53 49 49 48 48 47 46 45 44 44 45
56 56 54 54 55 56 58 58 58 58 57 56 58 59 57 54 52 52 52 52 51 50 48 47 46 46 44 43 43 42 41 43
55 54 53 54 53 55 57 58 58 58 57 56 56 54 53 50 48 48 48 49 49 50 48 47 45 44 43 44 44 40 40 38
54 54 55 55 54 54 54 56 57 57 55 54 52 51 49 48 47 47 48 49 51 48 49 48 46 43 42 42 40 39 39 38
54 55 55 53 52 52 52 53 52 52 51 50 49 48 47 47 49 50 50 48 46 49 48 44 44 42 41 40 39 39 38 39
52 56 56 52 51 51 52 52 51 51 50 50 49 49 49 49 50 49 47 44 43 43 43 42 42 42 41 40 39 38 37 36
54 53 51 50 51 50 51 51 51 51 51 51 50 49 49 49 48 46 44 42 42 42 42 42 42 42 41 39 38 37 37 35
50 51 50 49 49 50 50 50 50 51 51 49 49 49 49 47 47 43 42 42 44 42 42 43 43 41 41 39 37 36 36 35
49 49 49 49 49 50 50 51 51 51 49 48 49 47 47 46 44 42 42 42 45 44 44 43 43 42 40 38 37 36 35 35
48 51 51 50 50 50 48 48 48 47 47 46 45 45 45 44 42 41 42 42 41 42 43 43 42 41 38 37 37 35 34 33
51 51 51 52 49 48 48 46 46 46 46 45 45 45 44 42 41 41 41 43 42 42 42 42 40 40 38 37 35 35 33 31
48 50 49 48 48 48 46 45 45 45 45 43 43 42 42 41 40 41 41 40 40 39 40 38 38 39 39 36 34 32 32 31
47 47 47 49 48 45 44 44 44 44 44 42 42 41 41 40 40 39 39 39 38 38 39 39 39 39 36 34 33 32 30 31
46 45 47 47 45 44 44 44 44 44 43 42 41 41 40 40 40 39 39 40 39 39 39 39 37 35 35 32 33 31 29 29
47 47 46 46 45 43 44 44 44 44 42 42 42 41 41 40 39 38 38 38 38 37 38 34 33 36 36 37 35 29 30 29
45 45 45 44 43 43 43 43 43 42 41 42 41 40 39 38 38 37 36 35 37 34 31 31 31 32 36 36 34 30 27 26
45 44 44 43 42 42 42 43 42 40 40 40 40 39 38 38 37 36 34 34 32 30 30 31 30 32 34 34 31 25 24 25

GFSFLT1_sfc_temp_018.txt.gz
Temp
58 57 58 58 59 61 60 60 60 59 58 57 56 58 56 55 56 57 56 56 57 55 55 52 50 49 47 47 47 47 47 46
57 56 57 57 58 60 60 59 59 58 56 54 53 53 54 54 54 56 57 56 52 50 48 48 48 46 45 45 45 45 45 45
55 55 55 56 57 57 57 58 57 57 55 53 54 53 53 55 54 51 51 50 50 50 47 46 45 45 45 43 44 42 43 43
53 54 53 53 52 53 56 56 56 56 57 54 54 54 52 50 49 48 48 49 48 47 47 46 45 44 45 43 42 40 39 41
53 54 52 53 51 52 54 55 55 56 54 53 52 50 48 46 46 45 46 48 48 48 49 46 45 44 43 43 42 39 39 37
53 55 53 50 51 50 52 53 53 52 51 51 48 46 46 46 46 46 46 47 50 50 48 45 43 42 41 40 39 38 38 37
50 52 52 51 52 53 51 50 50 50 50 49 48 48 47 46 46 46 47 46 44 45 45 42 41 41 40 39 38 38 37 37
49 50 52 52 50 49 50 50 49 50 50 50 49 49 48 47 47 46 45 43 42 41 41 43 41 41 41 40 38 37 36 35
50 50 47 47 49 49 49 50 49 50 50 49 48 48 46 46 46 45 44 43 41 41 41 42 42 41 40 40 38 38 38 36
47 48 47 48 48 48 48 49 49 50 49 47 46 46 45 45 44 43 41 41 43 41 40 42 41 41 41 40 38 37 36 37
47 47 48 48 48 50 51 52 49 48 46 45 45 44 45 44 42 41 40 40 41 41 43 40 41 41 40 38 38 37 36 34
47 47 48 49 50 52 50 48 47 46 45 45 44 43 43 42 41 40 40 40 41 41 40 40 41 41 38 37 36 36 34 33
47 47 49 51 50 49 47 45 46 45 45 44 43 43 42 41 40 40 39 39 40 39 41 42 41 38 36 35 35 35 33 32
45 47 50 50 46 46 45 47 45 45 44 42 42 41 40 40 40 40 39 38 37 39 41 38 37 36 37 37 34 33 32 31
44 44 47 45 45 47 46 44 44 43 43 41 40 40 40 39 39 38 37 38 37 40 39 37 36 37 36 34 33 31 31 31
44 44 43 44 47 44 43 43 43 43 41 41 40 40 39 39 38 38 38 37 38 41 38 36 35 35 35 32 32 31 29 29
45 46 47 47 45 42 42 43 42 42 40 40 40 39 39 38 38 37 37 36 35 35 36 34 32 35 36 36 33 29 29 28
47 47 47 45 43 42 41 41 41 40 39 39 39 39 38 37 37 36 35 34 33 31 30 31 30 31 35 35 32 29 27 26
47 46 44 42 41 41 40 40 39 38 38 38 38 37 36 36 35 35 34 32 31 30 30 30 30 31 33 33 33 27 25 25

GFSFLT1_sfc_temp_021.txt.gz
Temp
59 60 62 64 66 65 64 63 60 60 58 59 61 60 62 62 59 60 64 63 62 63 61 60 62 61 60 61 60 61 60 58
60 62 64 64 64 65 63 61 60 59 60 60 64 60 58 59 63 62 62 62 61 61 61 60 61 60 58 57 59 56 58 57
59 62 64 65 64 64 64 65 64 65 67 66 66 65 65 62 61 60 60 60 60 60 60 60 59 60 57 55 55 55 55 55
59 60 62 62 62 64 66 66 66 66 66 66 65 64 63 63 61 60 59 60 60 59 58 59 58 57 56 54 53 51 51 53
61 61 61 61 61 63 65 65 65 63 64 64 62 63 61 59 60 60 61 59 59 59 58 56 55 56 54 54 54 51 51 48
61 61 61 60 61 62 62 61 61 61 61 61 61 59 59 60 60 57 58 58 58 58 56 55 54 55 54 52 52 51 52 50
60 59 59 60 61 60 60 60 60 61 62 61 60 59 59 60 59 58 59 59 58 56 55 54 54 54 52 52 51 50 50 49
59 60 61 59 59 58 60 61 59 60 60 60 60 59 59 58 58 58 57 57 57 56 53 52 53 52 51 51 51 50 50 48
59 59 58 58 57 59 60 61 60 60 59 58 58 57 58 58 57 57 56 54 53 53 52 52 52 51 51 51 50 50 49 48
58 57 57 57 58 58 59 60 59 57 57 57 56 57 56 56 55 54 53 53 53 52 51 51 51 51 51 51 50 49 49 48
56 57 56 57 58 57 58 59 56 54 56 55 56 55 55 55 54 53 53 53 53 52 51 52 51 50 49 50 49 49 47 47
55 56 56 57 58 58 57 53 55 56 56 54 55 55 54 54 53 53 53 52 52 50 50 49 49 46 46 47 47 46 45 45
56 56 56 56 55 54 51 52 54 54 55 55 54 54 54 53 52 52 51 50 49 48 48 48 47 44 47 46 45 45 43 42
54 55 55 54 51 50 54 52 53 54 55 54 54 53 52 51 50 50 50 49 48 48 47 47 45 46 45 45 43 42 41 41
54 54 55 52 52 54 51 51 53 54 54 54 52 51 50 50 50 49 49 48 47 47 46 45 43 44 43 42 41 41 41 40
52 52 52 53 53 50 51 52 52 53 52 51 50 50 49 49 48 48 47 46 46 46 44 43 41 42 42 41 41 39 38 37
52 52 52 52 51 51 50 51 51 51 50 49 48 48 48 48 48 46 46 46 45 44 42 41 41 41 36 35 36 38 37 35
51 51 53 53 52 50 50 51 50 48 47 48 47 46 46 46 46 46 45 44 43 41 41 40 38 38 35 34 33 37 35 34
52 53 53 52 51 50 50 50 48 46 46 46 46 45 45 46 44 44 44 43 42 41 39 38 38 37 33 33 32 35 34 33

GFSFLT1_sfc_temp_024.txt.gz
Temp
70 74 79 80 78 74 71 69 66 64 63 67 66 67 65 70 68 69 71 71 69 71 70 68 70 69 69 67 65 67 66 66
70 72 74 75 74 70 69 67 69 69 68 68 69 69 68 69 72 70 69 69 69 69 71 69 68 67 64 64 65 64 63 64
68 72 71 69 68 69 70 71 73 75 76 76 75 74 74 73 71 69 69 69 69 69 67 67 66 65 63 62 61 61 62 62
69 70 70 69 69 71 74 75 75 76 75 75 74 73 71 71 72 72 69 69 69 67 66 65 65 64 63 61 60 58 56 60
71 71 71 72 71 73 76 75 75 74 73 73 72 74 71 69 70 70 72 68 67 67 66 65 63 63 61 61 61 58 56 55
71 72 72 72 71 72 73 73 72 72 72 72 71 68 69 69 70 67 67 68 67 66 65 63 62 62 61 58 57 56 57 55
71 71 71 71 71 70 70 71 70 71 70 69 68 66 66 68 67 66 67 67 67 66 64 62 61 60 58 58 57 56 55 54
68 68 70 70 69 68 69 70 68 69 68 68 67 66 65 64 64 65 63 64 64 63 62 61 61 60 58 58 56 54 54 54
69 70 70 69 68 68 69 69 68 68 67 66 64 64 68 67 65 64 63 61 61 61 60 60 60 59 58 57 56 53 52 51
69 70 69 68 68 67 68 69 68 64 59 58 61 62 63 63 62 62 62 60 60 60 59 58 58 56 57 56 55 52 53 51
69 68 67 68 68 67 68 67 63 59 59 61 61 63 64 63 62 60 59 59 59 58 57 57 57 57 57 55 53 53 51 52
68 68 67 67 68 67 65 62 58 58 59 61 61 63 63 62 60 60 59 58 57 56 56 55 55 55 54 53 52 52 51 51
68 67 66 66 66 65 59 61 56 55 62 62 62 63 62 61 60 59 58 56 57 56 55 54 54 53 51 47 50 51 50 49
67 65 65 65 64 61 60 54 54 61 63 63 62 61 61 60 59 58 57 56 55 55 54 53 52 50 48 46 49 48 48 47
65 64 65 64 62 60 55 55 60 61 62 62 61 60 59 58 58 57 56 55 53 53 53 52 50 50 49 49 47 47 47 47
63 63 64 63 61 58 58 59 60 61 60 60 59 58 58 57 55 55 55 53 53 53 52 51 50 48 48 45 47 46 45 45
63 63 63 62 60 58 57 59 59 60 59 58 58 56 56 54 54 53 52 52 52 52 50 49 47 49 35 35 36 44 44 43
62 62 63 61 61 54 58 60 59 57 57 56 55 54 53 53 53 53 52 51 51 50 49 47 46 45 35 34 34 42 42 42
63 63 62 61 61 60 60 60 58 56 55 54 54 52 51 52 52 51 51 51 49 49 48 47 45 43 33 33 33 42 41 40

GFSFLT1_sfc_temp_027.txt.gz
Temp
81 83 86 86 84 78 75 72 70 68 65 66 69 68 69 69 69 72 73 73 72 74 71 70 70 70 70 68 65 67 66 66
79 81 82 83 77 73 71 68 70 72 73 73 72 70 72 73 75 73 73 73 72 72 73 71 70 68 66 66 65 63 63 65
77 78 79 79 72 71 73 72 72 73 72 73 77 75 75 76 74 72 73 72 72 72 68 68 68 66 65 64 63 60 61 63
75 76 71 71 69 68 72 73 72 75 78 78 78 77 73 73 73 73 71 71 71 70 68 67 66 65 64 63 62 59 57 60
77 76 68 68 69 70 71 71 78 78 78 77 74 75 70 73 73 72 73 70 69 70 69 67 65 64 62 62 64 59 57 55
76 77 76 73 70 71 77 78 78 76 77 76 74 72 71 72 72 69 70 70 70 69 68 66 64 63 62 61 59 58 58 55
77 77 77 76 76 75 75 75 75 75 74 73 71 69 69 69 67 67 69 68 68 68 67 64 63 62 61 61 60 57 54 54
74 73 74 74 73 72 73 74 72 72 71 70 69 67 66 62 65 67 64 65 64 64 62 61 61 61 61 61 57 54 55 54
74 74 74 73 72 72 73 73 71 71 70 69 68 67 66 68 67 66 64 63 62 62 61 60 60 60 60 57 56 55 54 53
73 75 74 73 72 71 72 72 72 70 68 67 65 61 63 64 64 64 64 62 63 62 60 59 59 59 58 57 56 54 54 53
74 75 73 73 73 71 72 72 70 68 66 64 63 60 64 65 64 62 61 61 61 59 58 58 57 57 58 57 55 55 53 51
74 74 74 73 73 71 70 71 68 65 65 62 58 61 64 64 63 62 62 60 60 59 58 57 57 56 57 54 51 51 50 50
76 74 73 72 71 70 69 67 66 64 63 57 60 65 65 63 62 62 61 59 59 58 57 56 56 56 54 50 50 48 46 48
76 74 72 70 70 69 67 66 64 62 59 60 65 64 63 62 62 61 61 59 58 57 57 55 55 54 52 50 48 48 48 48
75 73 72 70 70 69 66 64 63 60 59 62 64 63 62 61 61 60 59 59 57 56 55 55 54 53 51 50 49 48 47 47
73 71 71 70 69 68 66 63 60 59 60 63 63 63 61 60 59 59 58 56 56 56 55 54 52 51 50 47 47 46 45 46
71 72 71 70 69 66 64 61 60 58 61 61 62 60 59 58 57 56 55 55 55 55 54 52 49 50 35 36 37 44 45 45
71 71 70 70 69 66 62 61 59 59 61 61 60 58 57 55 56 56 55 54 54 52 52 51 48 47 36 35 35 41 43 44
72 71 70 71 70 66 63 61 61 60 60 59 58 57 55 55 54 54 53 53 52 51 51 49 48 44 35 34 34 40 43 43

GFSFLT1_sfc_temp_030.txt.gz
Temp
79 81 81 81 76 73 72 70 67 67 64 66 67 65 65 65 65 65 66 66 67 65 62 62 62 60 59 58 56 56 54 53
80 79 79 78 74 70 70 67 67 67 67 66 65 63 65 66 67 68 67 66 66 63 62 61 61 58 57 57 55 53 52 53
76 78 77 74 71 68 66 68 68 69 71 70 69 67 67 67 66 66 66 66 65 64 61 60 58 56 55 54 53 51 51 51
74 75 74 69 70 68 67 67 69 69 71 70 70 69 66 65 64 63 64 65 65 63 62 59 57 56 53 53 52 51 47 48
76 75 71 69 69 70 71 70 71 71 70 71 67 67 64 64 64 63 63 65 64 64 62 59 57 55 53 52 55 49 48 45
75 71 68 67 69 69 70 71 71 72 72 70 67 64 64 64 62 61 63 63 63 63 61 56 54 54 53 52 51 50 48 45
76 71 69 69 69 69 68 70 72 71 70 69 66 63 62 60 60 59 60 59 59 58 58 54 54 52 52 51 51 52 47 46
74 72 70 68 67 69 70 71 70 69 66 65 63 62 60 59 59 59 57 56 55 54 54 53 52 52 52 51 50 48 46 45
72 72 72 70 69 69 69 70 69 67 65 63 62 61 59 59 59 58 56 55 54 54 53 52 52 52 51 50 49 47 47 44
71 72 70 69 68 67 67 69 69 66 63 61 60 59 59 57 58 58 57 55 57 54 52 52 51 51 50 49 47 47 46 45
71 72 70 70 69 67 67 68 67 65 63 60 59 58 59 58 58 57 56 55 55 53 52 51 51 50 50 48 46 45 44 43
71 72 72 71 69 68 67 68 67 63 61 59 57 57 58 58 57 56 55 55 54 53 53 51 51 50 49 47 45 45 44 42
73 72 72 70 69 68 67 66 65 62 61 58 57 57 58 57 57 56 55 54 54 53 52 51 51 50 48 46 44 44 44 43
74 72 71 70 69 67 66 64 63 62 61 59 57 56 58 57 57 57 55 54 53 53 52 50 50 49 47 46 45 43 42 42
74 73 71 70 69 67 66 63 62 60 60 58 56 56 57 57 57 55 54 54 52 51 50 50 49 49 48 47 46 43 41 42
74 73 70 69 67 67 67 63 60 59 57 57 56 56 58 57 54 53 53 52 52 51 50 49 48 49 47 42 42 39 38 38
74 73 73 70 68 67 65 62 59 58 56 55 57 57 57 54 53 51 51 50 50 50 49 48 47 49 37 37 37 35 37 37
72 72 71 70 67 63 61 62 59 56 55 56 56 57 55 53 53 52 51 49 49 48 47 46 44 37 37 37 35 35 34 35
70 71 70 70 69 62 61 62 58 56 55 56 56 55 54 53 51 49 48 48 47 46 45 45 44 41 36 36 35 32 33 34

GFSFLT1_sfc_temp_033.txt.gz
Temp
72 72 73 71 69 70 66 64 61 61 60 60 59 58 57 57 57 58 61 61 61 58 57 57 56 55 53 53 52 51 50 48
72 70 72 69 68 65 64 63 61 61 59 58 59 59 57 57 59 60 60 61 60 57 55 55 54 53 52 51 50 49 48 47
70 67 69 68 66 64 63 63 63 61 61 61 64 59 59 59 59 59 60 59 59 59 56 54 54 52 50 49 48 46 46 45
67 66 65 64 62 63 63 63 64 63 63 65 63 59 58 56 56 56 58 59 60 57 55 54 52 51 49 48 47 46 43 45
69 64 63 61 61 61 63 64 64 64 63 62 61 58 57 56 55 56 57 59 59 59 56 52 51 50 49 48 50 46 44 42
66 63 62 62 62 61 62 63 64 65 66 63 63 56 55 56 56 55 55 56 58 55 52 50 49 48 47 47 46 45 44 42
64 64 63 62 60 61 61 63 63 64 64 62 59 58 55 54 53 54 54 52 51 52 52 49 49 48 47 46 45 45 43 43
61 60 60 60 60 60 61 61 61 61 58 57 56 54 54 53 53 51 53 52 49 49 51 50 47 47 47 46 45 44 44 42
61 61 61 61 60 59 61 61 59 59 57 56 54 54 53 53 52 51 53 52 52 51 50 48 48 48 46 46 44 43 43 41
62 63 62 60 59 59 59 60 59 58 56 54 53 53 53 52 52 52 53 51 54 50 48 48 48 47 47 46 42 41 41 40
61 61 61 61 60 60 59 59 59 56 54 53 53 52 52 52 52 55 54 52 52 50 50 50 48 47 46 44 42 42 40 39
62 61 62 62 61 60 59 58 56 54 53 52 52 52 52 54 55 55 53 53 52 50 50 48 48 47 45 43 42 41 40 39
63 63 62 62 61 61 59 57 55 54 53 52 51 52 54 55 55 54 53 51 50 49 48 48 48 46 44 42 41 41 40 38
64 64 63 62 62 61 60 56 56 56 54 51 51 54 55 54 54 55 52 49 50 48 48 47 47 46 44 43 42 41 40 39
64 65 64 64 63 62 61 57 57 55 54 51 53 53 54 55 54 51 51 51 48 47 47 48 47 46 45 45 43 40 38 38
63 63 63 63 62 60 60 58 57 57 55 55 53 54 55 53 51 51 50 48 48 48 49 48 46 45 45 41 41 37 36 36
63 64 61 60 59 58 58 56 56 56 54 53 54 53 53 50 50 50 49 47 47 48 46 45 44 46 38 39 37 35 37 35
63 62 63 60 59 57 55 55 53 52 53 53 53 52 51 49 50 49 47 46 46 44 45 45 43 39 37 38 37 35 34 32
60 60 60 59 55 53 54 54 52 52 52 52 52 50 48 47 48 45 44 44 43 43 43 43 41 39 37 37 35 32 31 31

GFSFLT1_sfc_temp_036.txt.gz
Temp
67 68 69 69 67 66 64 63 60 60 59 59 57 56 56 56 55 56 58 58 58 56 54 53 53 52 50 50 49 49 47 46
69 69 68 68 66 62 63 60 59 60 59 57 55 54 54 55 56 58 58 58 57 55 53 52 52 51 50 50 48 47 45 45
67 67 67 65 64 63 62 62 60 60 61 58 58 56 56 56 56 57 57 56 56 55 53 52 51 50 49 48 47 44 44 43
63 65 64 64 61 61 62 61 61 61 60 60 59 59 55 54 53 54 55 57 57 55 53 52 50 49 48 46 45 45 42 42
64 64 62 61 60 62 62 62 61 62 61 60 60 60 55 54 53 53 54 56 55 54 52 50 49 48 47 47 48 44 42 41
62 63 62 62 60 60 60 62 60 63 62 60 59 55 55 53 52 53 53 52 52 52 50 48 47 46 46 46 46 42 41 40
60 62 61 61 60 60 60 60 61 61 61 59 58 56 53 54 51 51 50 49 49 50 49 48 47 47 47 46 44 43 41 41
58 59 60 60 59 59 60 60 60 60 59 57 56 55 54 55 53 49 49 49 50 49 50 49 49 48 45 45 43 41 40 39
59 59 59 60 59 59 60 60 58 57 55 54 53 56 56 52 53 54 52 51 50 51 50 50 48 47 46 44 41 41 40 38
58 59 59 59 58 59 58 57 56 55 53 52 55 54 53 53 53 53 52 50 52 50 50 47 49 47 45 42 40 41 39 38
57 58 58 58 58 57 56 57 57 54 53 52 52 52 53 53 53 52 52 52 51 50 50 49 48 47 45 42 41 41 39 37
58 59 60 60 59 57 56 58 56 53 53 51 51 52 53 53 53 53 52 52 51 51 50 47 47 46 45 41 40 40 39 38
60 60 60 59 59 59 57 58 57 55 54 52 51 51 51 53 53 52 52 53 52 49 48 46 46 45 43 41 40 41 40 39
60 59 59 60 61 60 59 57 57 54 53 51 50 52 54 53 52 52 53 50 48 46 45 45 45 44 43 41 41 40 39 40
60 59 60 61 61 61 59 54 54 53 53 52 54 53 53 52 50 52 50 49 46 47 45 45 45 45 44 44 42 40 39 39
58 58 57 58 57 59 59 53 53 54 53 51 50 49 52 51 49 49 47 47 47 47 45 45 45 45 45 42 42 38 36 36
58 58 58 57 56 54 54 52 51 51 51 51 51 51 48 48 47 47 45 47 47 45 45 45 44 45 41 40 38 36 37 36
56 56 56 56 55 54 51 51 51 50 51 51 51 51 49 47 47 47 45 44 43 42 43 42 41 41 38 39 38 35 34 33
55 54 54 53 51 49 50 51 50 51 51 50 49 47 46 45 43 43 42 42 42 41 41 41 40 40 37 38 36 33 32 32

GFSFLT1_sfc_temp_039.txt.gz
Temp
64 64 64 65 63 63 62 61 58 58 58 57 56 58 57 55 54 55 57 57 57 55 53 52 51 50 49 49 47 45 45 45
65 65 65 64 61 60 60 59 58 60 58 56 54 54 54 54 55 57 57 56 56 53 52 51 50 50 48 48 46 46 43 42
63 64 64 63 61 61 59 60 58 60 60 56 56 54 54 54 55 55 56 55 55 53 51 50 49 48 47 46 46 43 44 43
62 63 62 63 61 60 60 60 59 60 58 58 55 54 53 52 52 52 53 55 55 53 51 49 48 47 46 45 45 46 42 42
64 63 62 62 61 62 62 60 59 60 60 58 56 54 54 52 52 52 53 54 53 52 50 48 47 46 45 46 46 42 41 41
63 64 63 63 61 60 60 60 60 61 60 60 57 54 53 52 51 52 51 50 51 50 49 47 48 46 48 46 44 42 40 39
62 64 61 60 58 59 59 59 60 61 60 58 57 55 53 51 50 49 48 47 47 48 48 49 48 48 48 44 42 42 41 40
57 57 58 59 58 58 59 59 59 59 59 57 55 54 53 54 53 51 47 46 46 47 48 49 48 47 47 46 42 42 42 40
57 58 59 59 58 59 59 59 60 58 57 56 54 53 53 52 51 50 51 50 50 50 49 48 48 48 48 46 43 42 39 38
57 58 59 58 59 60 59 59 58 55 55 52 51 51 50 51 52 52 51 51 51 49 49 48 48 48 48 45 42 40 40 38
55 57 57 59 58 59 58 58 57 54 52 52 52 52 52 53 53 51 51 51 51 49 49 49 48 48 46 42 39 40 39 38
56 57 58 58 58 57 57 55 54 53 52 51 51 52 53 53 53 53 52 52 51 50 50 49 48 46 42 40 40 40 40 38
57 58 57 57 57 57 57 56 55 55 52 50 49 50 51 52 53 53 51 49 48 50 50 48 46 45 42 40 39 40 38 37
55 55 56 57 57 57 57 57 55 52 51 50 50 50 53 53 51 51 48 48 49 48 46 45 45 43 42 41 39 38 37 37
54 54 55 57 58 57 57 53 51 51 51 50 49 49 50 50 50 49 48 47 47 46 46 46 45 44 44 43 40 38 37 37
55 54 53 54 54 54 54 51 50 51 51 50 48 49 51 50 48 45 46 46 46 47 46 45 44 45 46 42 40 37 36 36
54 55 56 55 55 53 52 49 49 50 49 48 49 50 49 47 46 44 43 44 45 45 43 43 43 44 42 40 39 35 35 35
53 53 54 53 51 51 48 47 48 48 48 49 49 48 47 45 46 45 44 43 42 40 41 41 40 39 40 40 38 34 33 33
49 48 48 46 46 46 47 48 47 48 48 48 48 46 44 44 44 43 41 40 39 38 38 39 37 38 39 38 37 32 32 32

GFSFLT1_sfc_temp_042.txt.gz
Temp
62 61 60 59 59 61 60 59 58 57 57 56 56 56 56 57 57 55 56 55 55 54 52 51 51 49 48 48 47 45 45 45
62 61 61 59 59 59 60 58 57 57 56 55 54 54 56 57 57 56 56 55 54 53 51 50 49 48 47 47 45 45 44 43
60 60 60 60 60 60 59 59 57 58 60 56 56 54 54 58 57 55 55 54 54 52 50 49 48 47 46 46 45 43 42 42
59 60 60 61 59 59 59 59 58 59 59 56 53 53 53 54 51 51 53 54 53 52 50 48 47 46 45 44 44 44 41 42
60 60 59 60 59 58 59 59 58 59 58 59 55 55 51 52 53 54 52 53 52 51 49 47 46 45 44 44 45 43 42 41
60 61 62 61 58 57 57 58 58 59 59 59 56 53 52 51 50 51 50 50 50 49 48 46 45 44 44 45 44 43 41 40
62 62 60 58 56 57 57 58 58 59 59 57 56 53 51 51 49 49 48 47 46 47 47 45 45 45 46 45 45 43 41 41
57 57 57 56 57 58 58 58 58 59 58 58 55 54 55 54 52 50 48 45 44 45 46 45 45 45 47 45 45 45 40 39
57 59 58 57 57 58 58 59 59 58 57 58 56 57 56 55 54 51 50 48 47 47 48 48 46 46 46 46 44 43 41 39
57 56 57 56 57 58 59 59 59 58 58 58 58 57 55 54 52 51 48 48 50 49 48 47 45 46 47 46 44 43 41 38
54 56 56 57 58 58 58 59 59 59 56 56 55 52 53 52 51 50 49 50 51 48 47 47 47 47 47 45 43 41 39 38
54 56 57 58 58 58 57 57 58 54 54 51 50 50 50 51 51 51 51 50 49 47 46 47 47 46 45 44 42 39 39 38
53 55 55 57 57 57 57 57 56 54 51 49 50 50 51 50 49 50 48 46 47 48 48 47 47 46 45 42 39 42 38 36
54 54 54 56 56 57 57 56 54 50 49 48 48 48 50 48 47 48 49 48 47 46 47 46 46 45 43 41 41 39 38 37
52 52 53 54 54 54 54 52 51 49 49 49 48 47 47 48 49 49 48 48 46 46 46 45 45 45 43 43 42 40 37 37
52 52 52 52 53 53 53 50 48 48 48 48 45 46 47 47 47 45 45 44 44 45 44 43 43 43 44 43 42 38 36 35
52 52 53 52 52 51 51 49 47 48 47 45 46 47 47 46 43 43 43 44 44 43 43 42 41 43 42 41 39 36 35 34
47 47 46 47 47 49 47 45 45 45 45 46 47 47 45 45 45 44 42 42 42 41 41 41 39 39 39 39 39 35 33 32
43 42 43 43 43 43 44 45 44 45 44 45 46 45 44 44 44 42 41 41 40 39 38 37 37 38 38 38 37 33 32 32

GFSFLT1_sfc_temp_045.txt.gz
Temp
66 67 68 68 68 68 68 68 67 66 66 66 67 66 65 65 66 67 66 66 65 65 65 63 61 59 61 62 60 61 61 62
68 66 68 67 68 67 67 66 66 66 65 63 64 64 64 65 66 65 65 66 65 64 63 62 62 62 61 60 59 59 60 59
66 66 66 66 66 67 67 67 67 66 68 66 67 67 66 68 62 59 61 64 64 61 61 62 62 61 59 59 59 58 59 58
65 65 65 66 66 66 67 68 68 67 68 67 65 65 64 64 61 61 62 63 62 59 61 61 60 61 59 59 59 58 57 56
68 66 66 66 66 67 67 67 67 67 66 66 64 66 64 64 62 63 61 61 60 59 60 60 59 59 58 58 59 58 56 54
68 68 68 68 68 65 66 66 66 66 65 67 65 66 66 64 62 61 60 58 59 59 59 58 58 59 57 57 55 55 50 47
68 71 70 69 66 65 64 65 65 66 65 64 64 63 61 60 59 58 57 60 59 58 59 58 57 57 56 56 55 51 49 51
67 68 66 67 64 64 65 65 64 64 63 63 63 63 62 62 60 54 53 57 56 56 57 55 56 56 54 52 46 46 50 48
67 68 68 66 65 65 64 64 65 64 62 63 64 63 62 62 59 56 55 56 57 56 55 55 54 51 50 46 47 49 52 53
66 67 67 66 65 64 63 64 66 64 63 63 63 63 62 58 56 57 55 55 53 54 54 54 54 50 48 47 50 52 52 51
62 64 65 66 66 65 65 66 66 66 65 64 63 63 62 60 58 57 55 54 54 53 54 53 50 49 50 48 52 51 51 50
62 64 65 66 66 65 65 66 66 66 65 64 63 62 61 60 57 56 54 54 54 54 54 50 49 48 49 47 47 50 49 50
63 63 64 64 64 65 65 65 65 66 64 61 60 59 57 56 55 55 54 53 52 51 50 48 47 48 51 47 47 46 50 49
62 63 63 63 63 63 63 63 64 64 60 59 59 58 56 55 54 53 52 51 52 49 49 47 47 47 48 46 47 50 50 49
61 61 62 62 62 63 62 61 60 57 57 56 55 55 55 54 53 54 53 53 50 50 48 48 47 46 48 48 50 49 48 48
59 61 61 62 62 62 62 61 58 58 56 55 53 53 54 54 53 50 50 47 47 48 45 46 45 45 45 45 47 48 48 48
55 56 57 57 58 60 58 56 55 55 54 53 53 53 50 46 45 44 44 44 46 48 45 43 43 43 40 41 42 47 47 46
51 50 50 51 52 54 53 53 53 53 52 52 50 48 46 45 46 45 45 44 44 43 43 43 41 43 40 40 39 46 46 46
48 49 48 49 50 50 51 52 51 51 51 50 49 46 45 46 44 43 43 42 42 42 42 43 45 45 39 38 37 45 45 45

GFSFLT1_sfc_temp_048.txt.gz
Temp
73 73 75 77 77 74 73 73 73 73 74 74 77 76 78 78 77 78 75 75 73 74 74 71 73 72 70 70 69 71 72 72
74 74 76 77 76 74 73 72 73 71 75 74 75 74 76 76 78 76 75 75 73 73 73 71 71 69 70 69 68 66 67 69
74 74 75 75 75 75 75 75 75 75 77 77 77 77 77 78 77 75 74 74 74 73 73 70 70 71 68 67 67 66 68 68
74 74 74 75 75 75 76 76 77 76 76 77 76 77 76 75 74 70 68 64 69 72 69 66 67 70 67 67 67 66 65 65
78 76 75 75 75 76 77 77 77 77 76 76 74 74 73 75 75 75 73 71 69 71 68 66 65 69 68 67 67 66 65 63
79 79 78 78 77 76 76 77 77 77 77 76 75 74 77 78 75 72 70 69 69 69 67 65 64 66 67 66 64 64 64 64
81 82 82 80 80 77 76 76 76 77 75 74 74 73 74 75 71 70 70 67 66 66 67 66 64 66 65 64 64 63 58 54
79 81 80 79 78 76 75 76 76 76 75 74 73 72 72 71 71 70 69 65 59 59 62 64 65 66 65 63 56 57 56 56
81 80 81 80 78 76 76 73 73 76 73 73 74 71 69 71 72 70 65 60 58 61 61 62 64 62 58 52 54 56 57 57
80 82 82 80 79 76 75 76 77 76 70 71 69 67 67 69 70 66 59 58 59 61 60 59 57 60 57 51 53 49 51 54
76 78 79 81 80 78 76 76 76 76 74 71 70 68 68 69 68 61 60 60 60 59 56 58 58 54 51 50 49 49 50 51
74 75 77 77 78 77 75 75 76 76 75 74 71 69 68 68 65 63 64 62 60 56 58 59 55 50 48 46 46 48 49 47
74 75 75 75 75 76 75 76 77 77 76 74 72 70 67 65 63 62 61 57 56 56 55 51 50 47 46 46 46 45 46 47
75 74 75 75 74 75 75 74 74 75 75 72 68 64 60 58 57 55 54 53 52 51 50 51 49 47 45 45 46 46 46 50
75 74 74 73 73 73 73 70 71 69 67 65 61 59 57 56 55 54 52 53 51 50 49 47 46 45 48 47 46 46 48 50
71 73 73 73 72 71 71 69 67 67 64 61 58 57 57 58 59 59 57 54 52 51 48 44 46 47 46 46 45 45 46 47
68 69 69 68 68 69 66 66 64 66 64 61 60 60 60 57 54 53 52 49 50 48 50 48 46 47 40 39 41 44 46 51
64 64 64 64 64 65 64 63 64 62 61 59 57 56 54 53 54 53 51 51 48 47 46 45 45 45 40 40 39 49 50 51
61 62 61 62 63 63 62 63 62 60 59 57 56 55 54 54 53 52 49 48 46 45 44 46 47 48 41 39 38 48 50 51

GFSFLT1_sfc_temp_054.txt.gz
Temp
70 68 68 68 67 65 66 64 65 64 64 66 68 66 69 70 71 72 70 70 69 67 67 67 66 65 64 64 62 63 62 61
71 70 69 68 68 67 66 66 66 65 66 66 66 65 68 69 71 72 70 70 69 68 66 66 65 64 64 63 62 61 59 60
70 69 69 68 66 67 67 68 67 68 68 68 68 68 69 71 72 70 70 69 70 68 66 66 64 64 64 62 61 57 58 58
70 69 68 69 68 68 69 69 69 69 69 71 72 71 70 70 71 71 71 70 70 69 67 66 65 64 61 60 60 58 55 58
72 71 70 70 71 72 72 72 72 71 72 71 70 70 68 69 70 71 71 69 68 70 68 66 64 63 62 60 61 60 60 56
73 72 72 73 73 72 72 73 74 74 72 72 69 69 69 70 69 68 70 68 67 67 66 65 63 62 61 60 59 60 59 57
77 76 75 74 74 73 72 73 74 75 73 72 71 68 69 68 68 68 67 67 66 66 67 64 62 60 60 59 59 59 58 56
78 76 75 75 73 72 73 73 74 75 74 73 71 70 69 69 68 69 67 66 65 65 63 62 61 61 59 58 57 57 55 51
79 80 78 77 75 74 74 74 74 76 74 73 70 71 69 66 67 69 67 67 66 65 62 63 60 58 58 57 54 51 50 49
80 81 80 79 77 75 74 75 75 76 73 70 69 65 64 63 65 67 65 66 64 61 60 58 57 57 56 52 50 50 49 48
79 82 81 81 79 77 76 76 77 76 73 70 68 66 64 64 63 66 65 61 59 58 57 57 57 56 52 51 49 48 46 45
78 80 82 83 81 79 77 77 77 74 69 68 67 64 66 67 66 64 64 61 60 59 58 57 55 52 51 48 46 45 44 44
78 78 79 79 80 80 78 77 76 72 70 68 69 69 67 64 62 60 60 59 59 58 56 53 51 49 46 45 44 44 44 43
78 77 76 77 78 78 77 76 76 73 69 66 66 63 60 57 56 55 54 53 52 51 50 48 46 46 44 44 45 44 44 44
78 76 76 76 76 76 76 74 74 69 63 63 60 58 56 55 53 52 51 50 49 48 48 47 46 45 45 45 45 44 44 44
78 76 76 76 74 75 75 68 66 64 62 59 57 57 56 54 53 52 51 50 49 48 46 45 45 45 46 45 45 44 43 44
78 78 76 75 74 73 67 65 64 63 61 59 59 58 57 56 54 52 51 50 49 48 47 46 44 48 42 42 43 43 44 43
76 77 76 74 72 67 67 66 66 63 61 61 61 58 56 54 55 54 51 50 49 49 48 47 47 44 40 41 40 43 42 42
73 71 69 67 67 68 66 66 64 62 60 59 58 56 55 55 54 51 49 48 48 47 46 45 45 46 40 40 39 40 42 43

GFSFLT1_sfc_temp_057.txt.gz
Temp
58 58 59 57 57 58 58 59 59 60 60 62 63 63 62 63 63 64 65 65 66 64 63 63 61 61 61 60 60 59 58 57
60 59 60 59 59 58 58 58 57 58 59 59 62 62 64 62 64 67 66 66 66 64 63 62 60 61 60 60 58 58 56 56
61 60 61 60 59 61 59 60 59 60 61 63 63 64 65 66 65 65 67 66 67 64 62 61 60 60 59 59 58 55 55 54
61 61 61 62 60 61 61 62 62 63 64 64 62 61 62 64 65 63 66 66 66 65 63 61 62 61 59 57 57 56 53 53
63 62 61 62 62 64 64 65 64 64 65 64 63 63 62 65 66 66 66 64 65 66 65 61 61 61 58 58 58 55 54 54
63 63 64 64 64 64 65 65 65 66 66 65 64 65 65 66 66 63 66 66 66 66 65 62 60 61 58 57 56 55 58 55
66 66 66 66 67 65 65 65 66 67 66 66 65 63 62 63 62 62 62 62 64 64 63 60 59 58 57 57 57 57 56 53
66 66 66 66 66 66 66 67 66 67 67 67 67 64 63 62 64 63 59 61 60 62 62 59 57 57 59 58 56 55 54 51
68 67 67 68 68 68 68 68 68 69 68 67 67 67 67 65 64 61 62 63 63 63 61 60 59 59 57 56 55 52 50 49
70 69 69 69 69 69 68 69 70 70 69 66 67 68 65 64 64 64 61 61 60 60 59 59 57 57 56 54 51 49 49 47
70 72 70 71 71 70 70 70 69 70 70 69 69 65 64 61 61 60 61 58 56 56 55 56 56 55 52 51 49 48 47 46
68 68 72 74 74 72 70 71 70 69 69 68 68 63 62 60 59 59 60 57 57 56 56 55 54 52 50 48 47 46 46 45
68 69 69 68 74 73 72 71 69 69 68 63 62 61 60 59 60 59 59 58 57 56 55 54 51 49 48 46 46 45 45 44
67 67 67 68 68 74 73 71 68 67 64 64 62 63 62 60 56 55 55 54 52 52 51 50 48 47 46 45 45 45 44 45
66 66 66 67 67 66 64 61 65 65 63 60 58 57 55 53 52 52 51 51 49 49 48 47 46 45 45 45 45 44 44 44
67 65 65 65 64 61 60 59 59 59 57 56 54 53 53 52 51 50 49 49 48 47 46 45 45 45 45 44 45 43 43 43
68 69 68 67 64 60 59 57 56 57 55 54 55 54 52 51 50 49 48 47 47 46 46 45 44 45 40 41 42 43 43 43
68 67 68 66 62 60 58 58 58 56 55 55 56 54 52 51 51 50 48 45 44 43 42 42 41 41 41 41 40 43 42 39
63 62 61 62 61 61 60 59 57 56 56 54 53 52 51 51 48 45 44 44 43 43 44 45 44 44 40 39 37 37 37 37

GFSFLT1_sfc_temp_060.txt.gz
Temp
55 59 59 59 59 59 58 58 59 59 59 60 60 60 61 63 63 63 63 63 64 62 61 61 61 59 59 59 59 57 57 56
55 55 56 58 57 56 57 57 57 58 59 58 59 59 61 62 63 64 63 63 64 62 61 61 60 59 59 59 57 57 55 54
55 55 54 55 55 56 56 57 57 59 61 61 61 62 64 63 63 62 62 63 64 63 61 60 59 58 57 57 57 54 55 53
54 55 54 55 55 56 57 57 57 58 59 60 58 58 58 60 61 61 62 63 64 64 62 61 59 59 59 56 56 55 54 51
57 56 55 55 56 58 58 59 58 60 60 60 60 60 60 63 64 64 64 62 64 65 64 62 60 60 59 59 58 56 56 56
57 57 58 59 59 58 58 59 59 61 61 62 60 60 61 63 63 62 62 61 63 64 64 61 60 60 59 58 55 56 57 56
60 61 61 60 60 60 60 59 60 61 61 62 61 60 61 61 61 61 62 63 62 63 64 62 61 60 59 58 58 56 54 54
61 60 60 60 60 60 61 61 60 61 61 61 62 61 61 61 62 61 61 61 61 62 62 61 60 60 59 58 57 54 53 53
62 62 61 61 61 61 61 62 62 63 62 62 62 63 63 62 62 62 61 61 63 63 61 61 59 58 58 57 55 54 53 51
63 64 63 63 63 62 62 63 63 64 63 63 63 63 62 63 64 61 60 61 60 59 59 60 58 58 58 56 53 50 50 49
65 65 65 65 65 65 64 64 64 65 65 64 64 64 64 64 61 61 62 59 59 57 57 59 57 57 56 54 51 49 49 47
67 67 68 67 68 67 66 65 65 64 65 65 64 64 64 61 59 58 59 58 56 55 56 56 56 54 52 50 48 48 46 45
68 68 68 67 67 68 67 67 66 66 65 62 61 60 60 60 60 59 58 57 56 55 55 54 53 51 49 48 46 46 45 44
62 62 64 68 68 69 68 67 67 65 64 63 61 61 61 61 60 61 61 56 55 54 54 53 50 48 46 46 46 45 45 45
63 62 62 62 64 69 69 66 65 63 64 62 61 61 61 60 57 55 54 54 52 51 50 49 47 46 46 46 46 45 44 44
63 62 61 59 59 59 64 64 64 64 63 62 61 59 56 54 53 51 50 50 49 48 47 46 45 45 46 45 45 43 43 43
65 64 62 60 58 56 56 56 59 62 61 57 55 54 52 51 50 50 48 47 48 46 46 45 45 45 40 41 43 43 43 43
63 63 64 61 58 57 55 54 56 56 55 54 53 52 50 49 49 48 46 46 46 45 44 44 43 42 40 41 40 42 42 41
64 65 62 60 57 56 55 55 54 55 54 53 52 51 50 49 49 47 46 46 44 43 43 42 41 41 40 39 38 37 35 34

GFSFLT1_sfc_temp_063.txt.gz
Temp
52 57 59 58 59 59 58 58 58 58 58 58 59 59 60 62 62 63 63 62 63 60 59 59 59 58 57 57 57 55 55 54
53 57 58 58 58 58 57 57 57 58 56 58 58 57 59 61 62 63 63 62 63 61 59 59 59 58 58 57 55 55 54 53
52 51 53 54 57 57 57 56 54 56 58 59 58 62 61 62 62 62 62 62 62 61 60 59 59 58 57 56 55 53 53 52
52 52 51 55 55 56 57 55 55 56 57 61 57 59 60 60 60 60 60 61 62 62 61 60 59 58 57 55 55 54 53 51
54 52 51 53 55 58 56 55 55 57 57 55 55 57 58 60 62 59 60 60 61 62 61 60 59 58 56 56 57 56 54 52
54 53 53 53 54 55 54 55 55 57 57 58 57 56 58 58 57 57 58 58 59 60 60 59 59 58 58 57 55 54 55 54
57 57 56 54 55 54 54 55 56 57 57 57 57 57 58 58 55 56 58 58 57 58 59 59 59 59 58 58 58 56 56 56
57 55 55 55 54 55 55 55 56 57 57 57 57 57 57 57 59 58 59 58 57 58 58 59 59 59 59 58 57 57 55 54
58 58 57 57 56 56 56 56 56 58 57 57 59 59 59 59 59 60 59 59 61 59 58 59 60 59 57 57 56 55 54 54
60 60 59 59 59 58 57 58 58 59 58 58 58 59 59 59 60 57 58 57 59 57 58 58 59 58 58 57 57 56 54 52
62 61 61 61 61 61 60 59 59 60 60 59 59 59 60 60 60 60 60 59 58 58 57 58 59 58 57 58 57 53 51 49
63 63 63 63 63 62 61 61 60 60 61 60 59 59 59 60 60 61 60 59 58 57 57 58 58 57 55 55 52 50 49 47
66 64 64 63 63 63 62 62 61 61 61 61 60 61 61 61 61 62 62 59 58 57 56 56 55 54 53 51 49 48 47 46
62 63 63 63 63 64 64 63 62 62 62 61 61 60 60 60 61 63 61 60 58 55 55 54 53 51 50 49 48 47 46 46
58 61 63 64 64 64 64 63 63 63 62 62 61 61 61 61 62 62 61 59 57 56 55 53 50 48 48 47 46 45 45 45
60 59 60 62 63 64 65 64 63 62 61 61 61 62 62 62 60 58 54 55 55 54 50 47 47 47 47 46 46 44 44 43
62 61 60 59 60 60 61 62 61 61 61 61 63 63 59 58 56 52 50 49 50 48 47 46 46 46 40 41 43 43 43 43
64 60 62 62 60 57 57 59 61 61 61 61 61 57 54 52 51 50 48 48 48 46 45 45 45 44 39 40 40 44 43 41
64 63 61 59 55 54 55 58 58 59 59 56 54 53 51 50 49 47 46 46 45 44 45 45 44 42 39 39 38 39 37 35

GFSFLT1_sfc_temp_066.txt.gz
Temp
52 54 55 59 58 58 58 58 58 58 58 58 58 58 59 60 61 62 62 62 62 60 59 59 58 57 57 56 56 55 56 56
52 58 57 55 58 57 58 57 57 57 57 56 57 56 59 59 61 63 62 62 62 61 59 59 59 58 57 57 56 55 54 54
51 53 56 56 57 57 57 57 57 59 60 60 58 58 59 59 60 61 62 62 62 61 60 59 58 57 57 56 56 53 54 53
52 52 55 57 55 57 57 57 57 57 59 60 59 59 58 58 59 59 61 61 61 61 60 59 58 58 57 55 55 55 53 51
52 52 52 55 56 56 57 56 54 55 55 54 55 58 59 61 61 60 61 61 61 61 61 59 58 57 57 57 56 55 53 51
51 51 52 55 56 55 58 57 53 56 56 56 55 54 61 59 59 59 59 59 60 60 59 59 58 58 58 56 55 54 54 53
54 54 53 51 51 54 57 56 54 55 55 54 54 55 55 55 53 53 54 55 56 57 58 57 57 56 56 57 56 55 55 55
54 51 51 51 50 52 55 54 53 54 55 55 55 55 55 56 57 54 53 54 54 54 56 56 56 57 57 57 55 54 54 54
56 54 54 53 52 52 52 53 53 54 55 55 56 56 56 56 55 57 54 54 55 56 55 56 56 57 56 55 55 56 56 55
57 57 56 55 54 54 54 54 54 55 55 56 56 56 55 55 54 54 54 54 55 55 55 55 56 56 56 57 57 56 56 55
57 58 57 58 57 57 56 56 55 56 56 56 56 55 55 55 54 54 56 55 55 55 55 55 55 55 56 57 57 57 57 55
58 59 60 60 59 58 57 56 56 56 57 57 56 55 55 55 55 55 56 58 59 58 59 58 58 58 56 56 57 55 53 52
59 60 59 59 59 59 58 58 57 57 57 58 56 56 57 56 57 58 59 59 61 60 60 59 57 57 57 56 54 51 51 49
57 57 59 59 59 60 60 59 59 58 57 58 57 57 57 57 59 59 60 60 60 60 59 57 57 55 54 54 53 51 50 48
56 56 59 60 61 60 60 59 59 59 58 58 58 57 57 59 60 59 59 60 60 59 59 58 55 53 52 50 50 47 47 46
57 56 59 60 60 60 61 60 59 59 58 58 58 59 59 60 59 59 58 59 60 59 56 52 50 50 49 48 47 46 45 44
61 59 58 59 59 60 60 60 59 60 59 58 59 60 60 59 60 59 59 58 58 55 53 52 48 48 45 43 45 45 44 43
61 61 61 60 60 59 59 60 59 59 59 59 59 59 59 59 59 57 54 54 52 50 48 48 46 44 42 42 41 44 43 42
63 61 59 61 59 56 55 56 57 58 58 58 58 58 58 54 52 52 50 48 48 47 47 45 44 42 40 40 40 40 38 37

GFSFLT1_sfc_temp_072.txt.gz
Temp
73 72 72 71 70 66 63 63 61 61 61 63 62 62 64 62 62 62 65 70 71 74 74 72 73 74 73 73 71 73 73 72
74 72 70 69 68 65 64 59 59 60 61 60 59 60 61 62 63 63 65 70 73 73 74 72 71 71 72 71 71 68 70 71
72 70 70 69 66 66 63 60 59 62 61 62 61 61 62 64 62 62 63 69 73 70 67 68 69 70 71 69 67 65 68 67
71 69 69 70 65 66 67 63 63 63 65 66 62 59 59 59 60 61 61 64 71 68 64 64 64 69 69 68 67 67 66 66
74 71 70 70 69 66 68 65 66 63 64 63 65 65 59 63 61 61 60 62 65 66 63 63 64 67 69 68 66 69 70 65
74 72 72 72 72 67 65 66 69 64 62 64 64 67 62 62 62 60 59 59 62 65 63 63 63 65 66 67 66 68 71 68
77 76 74 73 72 69 67 68 68 66 65 63 61 62 63 61 58 60 58 59 60 61 65 66 68 65 68 68 66 67 68 69
77 75 73 72 70 68 68 70 69 69 67 66 65 65 65 63 60 61 59 59 60 61 63 63 66 69 63 66 67 67 71 70
77 76 74 73 71 69 68 70 71 71 68 69 69 69 67 67 67 68 67 67 67 68 66 65 66 67 65 67 68 71 70 69
78 77 75 74 71 69 67 71 72 71 69 69 69 70 70 70 69 70 71 70 71 69 69 68 68 69 71 70 70 70 71 70
79 78 75 75 73 72 69 71 71 71 70 70 70 69 69 70 71 71 71 71 72 71 71 70 71 72 72 72 72 72 71 71
78 78 78 76 75 73 70 71 71 69 69 70 70 69 69 69 70 70 71 71 71 71 70 71 72 72 72 71 71 71 70 70
80 78 77 75 74 73 72 71 71 70 69 69 69 69 70 69 68 70 70 70 71 72 71 71 71 72 71 71 70 70 70 69
81 77 76 75 75 74 74 71 71 71 70 68 68 67 68 68 68 68 70 70 70 71 71 71 70 70 70 69 70 69 68 65
80 79 77 77 77 75 74 72 72 71 71 69 67 67 68 68 69 68 69 70 69 69 70 70 69 69 67 67 61 59 58 58
80 79 81 80 78 76 76 75 72 72 70 69 69 69 69 69 68 68 69 69 69 70 69 70 69 64 61 61 64 62 57 55
79 80 79 79 79 78 76 75 73 72 70 69 70 70 69 68 68 68 68 68 68 69 69 69 68 66 52 47 58 58 55 52
76 79 79 79 79 77 77 77 76 72 71 71 70 70 69 69 69 68 68 67 68 67 68 68 68 67 44 45 44 57 53 50
72 76 78 80 81 79 78 80 76 72 72 72 71 70 69 70 69 68 67 68 67 66 66 66 64 59 43 43 41 49 44 43

GFSFLT1_sfc_temp_075.txt.gz
Temp
81 81 81 80 78 73 67 63 63 61 61 62 62 62 62 63 62 65 70 74 73 74 75 71 72 74 75 76 74 76 75 75
83 79 79 77 76 71 70 63 62 62 61 60 60 59 61 63 62 64 67 73 74 73 76 74 75 75 75 74 73 72 72 74
81 78 77 74 74 70 67 64 65 63 62 63 63 63 62 64 63 63 65 67 72 72 72 72 73 74 72 72 71 70 71 71
80 77 76 74 73 70 71 65 62 65 66 66 64 63 62 61 61 62 62 65 69 74 73 71 70 70 69 69 70 69 65 68
82 79 76 75 74 74 70 66 64 64 65 62 60 60 58 61 61 61 60 62 66 72 71 69 68 70 66 70 71 70 66 61
82 80 79 78 76 73 74 67 67 65 65 64 61 61 62 63 60 60 60 60 63 68 68 64 63 66 64 66 67 68 67 63
84 83 81 79 78 74 73 68 67 68 66 68 65 67 64 62 60 59 60 59 60 63 65 64 62 63 62 65 69 67 66 66
83 82 80 79 76 74 72 72 71 67 66 67 67 69 68 64 65 61 60 60 59 60 63 64 63 63 65 65 66 67 63 61
84 83 81 79 77 75 72 73 73 73 67 67 67 68 69 70 67 69 68 64 63 63 62 63 63 63 67 66 65 67 63 66
84 85 82 80 78 75 73 75 76 75 72 70 69 69 69 68 69 69 69 69 70 67 65 63 63 64 66 68 63 64 65 65
85 85 83 81 79 77 75 75 76 77 75 73 73 72 71 70 70 69 69 69 70 67 66 66 66 66 67 69 69 68 63 63
83 84 85 83 81 79 76 74 76 76 75 74 73 73 73 73 71 71 72 71 70 70 69 69 70 69 70 69 69 70 68 68
85 84 85 83 80 79 77 75 76 77 76 74 73 73 73 72 72 73 72 72 72 72 72 71 71 71 71 70 69 70 69 69
85 84 83 82 81 79 78 76 75 77 76 73 73 72 72 71 72 73 73 73 73 72 72 71 70 70 70 70 70 70 70 70
83 85 85 83 81 80 79 78 77 77 76 74 72 72 72 72 73 72 72 73 72 72 72 72 71 72 72 72 72 71 70 70
79 82 85 86 83 81 81 80 79 77 76 74 72 73 73 73 72 72 72 72 73 73 72 71 72 71 71 70 70 67 65 65
76 80 82 84 85 83 82 80 79 78 76 74 75 74 73 72 72 72 71 71 72 72 71 71 70 71 57 50 57 62 59 58
72 73 76 80 83 83 83 83 81 78 76 76 76 75 74 72 73 72 71 70 70 69 70 70 70 70 50 47 46 62 60 60
71 73 74 78 79 81 83 84 83 79 77 76 76 75 74 74 73 72 71 70 69 68 68 69 69 70 45 45 43 61 62 57

GFSFLT1_sfc_temp_078.txt.gz
Temp
81 81 79 79 74 68 68 63 61 61 61 61 60 60 61 62 62 62 63 65 66 65 65 65 64 64 66 65 66 66 64 65
82 79 77 76 72 68 66 61 60 61 60 59 59 58 60 61 62 62 63 66 67 66 66 65 65 65 65 65 65 64 63 64
80 77 75 73 71 69 65 64 62 61 62 62 62 61 61 63 63 63 65 66 68 67 66 66 65 65 64 65 64 62 62 62
78 76 74 71 70 68 67 66 63 62 63 63 62 61 61 60 60 60 61 63 68 68 67 66 66 65 65 64 64 63 59 61
80 76 74 71 70 69 68 65 65 64 63 62 60 59 57 60 61 62 61 62 63 67 66 65 64 64 63 64 65 63 61 58
80 77 76 75 72 69 68 66 65 64 63 63 61 60 61 63 61 61 60 60 61 63 66 64 64 63 63 63 63 62 61 59
82 80 78 76 73 70 68 66 65 64 64 63 63 62 61 61 60 58 58 59 60 61 64 63 62 62 62 63 64 62 59 61
81 79 77 76 72 69 69 66 65 65 63 63 62 62 63 60 61 61 60 59 59 61 62 62 62 62 62 61 60 60 60 59
80 80 77 76 73 69 69 67 66 66 63 63 63 64 63 63 62 63 62 62 61 63 62 62 62 62 62 61 61 60 60 60
81 81 78 77 74 70 68 69 69 68 65 65 65 66 65 63 63 63 63 63 65 63 63 61 62 62 62 62 61 61 61 61
80 81 78 78 76 73 69 69 70 71 66 65 66 66 66 66 66 64 64 63 64 64 63 62 61 62 62 62 62 63 61 62
79 80 81 79 78 75 71 70 72 71 69 67 66 65 66 66 65 66 65 65 64 64 64 63 62 61 62 62 62 63 62 61
81 81 81 79 78 76 73 72 71 72 71 69 67 67 67 66 66 66 66 65 66 65 65 63 63 63 62 61 62 64 62 62
78 80 80 79 78 77 76 73 72 72 72 70 68 68 67 67 67 67 67 66 66 65 66 64 63 63 63 63 63 63 63 63
77 77 79 79 79 78 77 74 73 72 73 71 69 68 68 68 68 68 68 68 67 66 66 66 65 65 65 65 65 64 64 64
72 71 72 75 77 77 78 76 74 73 72 71 70 69 69 69 68 68 68 68 68 68 66 66 66 66 66 65 65 64 63 63
69 71 72 72 74 75 77 77 75 74 72 71 72 70 69 68 68 67 67 66 67 67 66 66 65 67 56 51 59 63 63 63
68 68 69 69 69 71 74 75 77 75 74 73 73 71 69 68 68 68 67 65 65 65 65 66 65 65 51 49 48 64 63 61
68 68 67 68 67 64 65 69 75 75 75 74 73 72 70 70 68 67 66 66 65 64 64 65 65 65 49 47 45 59 62 56

GFSFLT1_sfc_temp_081.txt.gz
Temp
71 70 68 64 62 62 61 61 62 62 61 60 59 60 60 61 61 62 63 65 65 65 64 62 64 62 63 64 64 61 62 63
73 71 69 64 62 61 60 60 60 61 60 58 58 58 59 60 61 61 62 65 65 66 63 62 62 62 64 64 61 62 60 61
71 68 66 64 61 60 59 60 60 60 60 60 60 60 61 62 61 61 62 62 65 64 63 62 62 63 62 61 62 59 60 60
69 68 65 62 60 59 59 61 60 61 62 62 61 61 60 59 59 60 60 62 64 66 64 64 63 64 63 62 62 61 58 58
70 68 65 62 61 60 60 60 60 61 62 61 59 58 57 59 60 61 61 61 63 66 63 64 62 62 63 63 64 64 58 56
69 67 67 65 63 61 60 60 62 62 62 62 60 59 60 61 60 60 60 59 61 61 62 61 61 60 60 61 62 61 59 58
71 70 67 66 63 62 60 60 62 62 62 62 61 60 60 59 59 59 59 58 56 58 62 63 63 60 59 60 60 60 60 59
70 67 66 65 62 62 60 60 60 62 62 62 62 61 61 60 60 60 60 59 59 60 59 61 62 62 60 61 60 60 59 59
70 69 68 66 64 62 63 60 60 61 62 62 63 63 62 62 62 62 61 61 61 63 60 61 62 62 61 60 60 60 59 58
70 71 69 67 64 63 63 61 62 61 61 62 61 60 60 61 63 63 62 62 62 62 62 58 61 61 61 60 60 58 58 59
69 71 70 69 66 65 64 62 62 62 60 61 63 62 62 62 62 61 62 62 61 60 61 61 61 61 61 61 61 60 59 59
71 70 72 71 67 65 64 64 63 63 61 62 62 63 64 64 63 62 63 63 62 61 60 60 60 59 60 59 60 61 60 61
70 70 69 69 68 66 65 65 65 65 63 62 62 62 64 64 63 63 63 63 63 61 62 61 60 60 59 59 58 61 60 60
65 67 69 68 67 67 66 65 66 67 64 62 61 61 62 62 62 63 64 64 64 63 62 61 61 60 60 59 60 60 60 60
65 65 67 67 69 65 67 66 67 66 65 64 62 62 62 62 63 63 63 63 62 62 62 62 61 61 61 61 60 59 60 60
64 64 64 65 65 65 65 66 67 67 66 64 64 64 64 64 63 63 64 63 64 64 62 62 62 61 61 60 60 59 58 58
64 63 62 61 59 58 60 61 62 66 67 67 67 64 64 64 64 63 63 63 64 63 62 62 61 63 54 49 56 60 59 58
58 57 56 56 54 54 54 57 62 63 64 66 67 66 65 65 65 64 63 63 63 62 62 63 62 62 49 48 47 61 60 59
55 53 52 51 51 50 52 57 55 55 55 57 59 65 65 65 64 64 63 63 62 62 62 62 62 63 48 46 45 58 60 59

GFSFLT1_sfc_temp_084.txt.gz
Temp
68 64 63 62 62 62 62 62 61 60 59 60 60 60 61 62 62 62 63 64 65 64 63 61 61 61 61 60 61 61 63 60
68 64 62 61 60 60 60 61 61 60 59 58 58 58 59 60 62 62 63 64 64 64 64 62 62 62 63 62 61 62 59 59
66 62 60 60 59 60 59 60 61 61 61 60 60 60 60 61 61 61 62 63 64 64 65 63 64 62 61 61 60 57 57 58
65 61 59 59 58 59 59 61 61 61 61 61 60 60 59 59 59 59 60 61 63 64 63 63 62 61 61 60 61 62 59 57
66 63 59 58 58 59 58 61 61 61 61 60 59 58 57 59 59 61 61 60 61 64 64 62 61 60 60 62 63 62 57 57
66 64 62 61 59 58 58 61 62 62 61 61 59 59 60 60 58 55 59 58 60 62 62 61 61 62 60 62 60 59 58 56
68 67 64 59 59 58 59 59 60 62 61 61 60 59 59 59 59 58 58 59 58 59 61 62 61 61 61 59 60 60 59 57
66 64 61 58 57 57 58 58 58 60 61 61 61 60 61 59 59 59 58 58 57 59 59 60 61 62 62 62 60 59 59 58
66 64 63 60 59 58 59 58 57 58 60 61 61 61 61 61 61 61 59 60 61 62 59 60 62 62 61 61 61 60 59 59
65 64 64 62 60 59 59 59 59 59 59 61 61 62 62 61 62 62 61 61 63 62 60 59 60 61 62 62 62 61 60 59
65 65 65 64 62 61 60 60 59 60 60 61 62 62 62 62 62 61 62 62 62 62 61 60 60 60 61 60 61 61 59 60
63 67 67 65 63 62 60 59 59 59 60 60 62 62 61 61 60 60 62 62 62 62 61 60 60 59 59 59 61 61 59 60
63 64 64 62 62 62 61 61 60 60 60 60 60 62 61 60 61 61 62 62 62 62 61 60 59 60 59 58 59 61 58 58
62 62 61 61 62 62 61 61 60 61 60 59 59 59 59 60 61 63 62 62 62 62 61 60 59 59 59 59 59 59 58 58
60 59 58 59 59 59 59 60 61 61 61 60 59 59 60 61 61 61 62 62 62 62 62 61 60 59 59 59 58 58 59 59
58 56 55 55 54 54 56 58 61 62 60 60 60 60 61 61 61 61 61 61 61 62 61 61 61 59 59 58 59 57 57 57
55 54 52 52 51 51 53 55 56 59 60 60 61 60 61 60 60 60 60 61 61 61 60 59 59 60 52 48 54 58 57 56
52 50 48 47 46 48 50 52 53 53 53 55 58 58 60 62 61 60 60 60 60 60 60 60 59 60 49 47 46 59 58 57
47 46 45 44 45 46 48 49 49 49 49 51 53 52 52 54 56 61 61 61 59 59 60 60 60 61 48 46 44 56 59 59

GFSFLT1_sfc_temp_090.txt.gz
Temp
64 63 62 61 61 63 63 59 58 58 58 59 60 61 61 63 63 63 63 62 61 61 60 58 60 61 60 60 60 59 59 59
62 60 60 60 61 62 61 58 58 58 58 58 58 59 60 61 62 62 63 62 60 60 59 59 59 60 60 59 57 57 55 58
57 57 59 60 62 62 61 60 58 58 60 60 57 59 60 61 61 62 63 61 60 59 59 59 60 59 59 59 57 55 55 58
56 56 58 62 62 62 61 61 59 59 60 61 58 59 59 58 59 60 61 61 60 60 59 58 57 59 59 59 56 56 56 56
57 56 59 60 63 63 63 62 60 59 61 60 59 59 56 58 59 59 60 61 60 60 59 58 58 58 59 60 60 57 57 55
57 57 59 61 64 61 62 62 61 60 59 61 59 57 56 59 58 58 58 59 60 60 59 58 59 59 59 60 59 57 57 57
60 61 59 61 63 61 60 60 61 61 60 60 59 57 56 57 57 57 58 58 59 59 59 59 59 59 58 58 58 57 57 57
58 58 56 59 61 59 59 59 59 60 60 60 59 58 59 57 58 58 57 57 57 58 59 59 59 60 61 59 58 57 58 56
58 59 57 58 60 59 58 57 57 59 59 59 60 57 59 60 59 59 59 59 59 59 59 59 60 61 61 60 59 59 57 57
58 62 60 57 60 59 57 59 60 59 60 58 59 61 57 60 60 59 59 56 58 57 58 58 59 59 61 59 60 58 58 57
60 64 60 58 59 60 60 61 60 58 60 62 61 60 58 59 58 56 55 55 57 56 56 56 57 58 59 60 60 59 59 59
59 59 59 58 60 60 59 59 59 59 60 59 59 60 58 60 59 56 56 55 56 56 56 57 57 57 59 57 59 59 57 59
56 57 57 55 57 58 58 58 58 59 59 59 59 60 58 59 59 59 59 57 56 57 56 56 57 57 57 57 57 58 57 57
52 53 55 55 55 56 56 56 56 58 59 58 58 57 56 57 59 60 60 60 60 58 58 57 56 57 57 58 58 58 57 57
48 48 49 51 52 53 54 55 58 57 57 56 56 56 56 56 58 60 60 60 60 60 60 59 59 58 57 57 57 57 57 57
45 44 45 47 48 50 51 52 54 58 58 57 57 57 57 57 58 59 60 59 58 59 59 58 59 59 59 57 58 57 56 56
43 43 43 43 44 45 46 46 48 51 51 50 51 52 57 57 58 59 59 59 60 59 58 58 57 58 50 47 54 58 57 57
41 41 41 41 41 43 43 44 45 45 45 46 47 48 49 49 51 50 50 52 57 58 59 59 58 58 47 46 45 57 59 57
38 38 39 40 42 43 43 44 43 42 41 41 41 43 44 45 45 45 45 47 48 50 51 56 58 59 42 43 43 53 57 58

GFSFLT1_sfc_temp_093.txt.gz
Temp
76 74 75 74 73 71 70 65 63 63 63 62 63 64 64 65 65 65 64 63 63 63 62 61 61 60 63 65 65 66 68 68
75 73 72 70 70 69 69 61 62 61 59 59 60 61 62 63 64 66 64 62 61 60 60 61 63 62 65 66 64 65 65 68
72 72 68 68 68 69 66 62 61 61 62 64 65 64 63 64 63 63 62 61 60 61 61 62 63 62 61 63 65 65 65 65
71 68 66 67 67 67 65 62 62 62 63 65 64 64 61 61 62 64 62 61 61 60 62 62 63 63 62 64 64 64 60 64
71 69 66 66 67 68 66 63 62 62 63 62 64 62 60 63 64 62 61 61 60 60 60 59 60 62 61 62 64 65 64 61
69 70 69 68 68 67 65 63 62 62 61 63 63 62 64 65 63 60 60 61 60 60 59 58 57 59 60 60 61 63 64 65
68 71 69 68 68 67 64 63 61 62 61 63 63 61 61 63 61 59 59 59 59 59 58 58 58 57 58 58 59 60 62 65
62 67 66 66 66 64 64 63 61 61 60 61 61 60 62 64 62 60 59 58 58 58 58 57 57 57 58 58 59 59 60 62
62 64 67 66 65 64 63 62 61 61 61 61 61 61 65 66 64 62 63 59 59 59 59 58 57 59 58 58 61 60 60 61
60 64 66 65 65 63 61 62 62 61 62 61 60 61 64 64 62 62 61 61 60 59 59 59 58 59 59 58 62 59 59 61
59 65 65 65 66 63 61 61 61 61 62 61 61 62 61 64 64 63 60 60 61 60 58 59 59 59 59 59 62 66 61 59
58 64 66 64 65 62 60 61 62 63 63 62 64 64 61 62 62 61 60 62 63 64 63 60 59 61 62 61 64 64 59 60
51 57 61 61 60 61 60 61 61 63 64 63 63 64 61 61 63 62 62 63 64 64 64 64 64 64 65 64 62 61 60 61
47 49 49 55 57 57 58 59 60 61 61 61 61 61 60 61 64 62 61 63 63 63 64 62 62 63 63 62 61 61 61 61
44 44 45 46 47 49 51 55 59 60 60 59 59 59 59 62 64 65 63 63 62 60 60 62 63 63 63 63 62 61 61 62
42 41 42 42 43 45 46 48 51 58 57 57 58 60 61 62 63 64 64 64 64 64 63 62 62 62 63 62 63 63 62 61
40 40 41 41 42 42 44 44 45 47 47 47 49 51 51 51 52 56 59 59 60 61 62 63 63 64 50 46 55 62 62 62
37 38 38 40 42 43 42 43 43 41 40 43 44 46 46 46 48 49 48 48 51 52 54 56 58 51 37 39 42 57 58 58
35 35 36 38 41 42 43 42 41 39 38 40 41 41 42 44 44 44 44 46 47 47 43 42 44 39 36 37 36 46 54 58

GFSFLT1_sfc_temp_096.txt.gz
Temp
88 90 88 88 88 85 82 79 73 68 68 67 67 68 67 70 72 71 71 69 67 64 64 63 61 60 60 61 67 69 72 74
88 88 88 85 85 83 81 78 71 67 65 64 63 64 65 67 73 69 70 65 63 63 63 62 61 60 60 62 68 69 68 73
84 86 87 83 82 81 80 79 69 69 72 73 70 68 68 70 69 68 68 65 61 62 62 62 61 60 60 62 68 68 68 70
79 81 83 83 80 80 80 79 68 69 75 74 70 71 69 68 67 64 61 61 61 61 61 62 61 61 61 66 69 68 66 69
77 80 81 83 80 81 80 76 67 68 72 73 72 70 67 69 67 71 63 63 61 62 60 61 61 62 65 66 69 71 70 67
74 76 80 84 83 79 78 70 66 67 69 74 72 73 75 70 69 67 64 62 63 60 61 62 63 64 65 69 69 70 71 70
74 77 78 81 83 78 74 65 65 66 69 72 72 72 72 69 67 66 60 60 59 60 59 59 61 63 63 64 63 63 64 68
70 73 76 79 78 76 70 64 64 66 67 69 69 72 70 70 67 65 61 59 59 58 58 58 58 59 60 60 60 60 60 61
67 68 71 76 77 76 68 65 66 66 66 67 67 72 65 72 69 67 63 62 60 60 59 58 59 59 59 59 59 59 60 62
63 61 71 75 76 75 67 66 69 65 66 66 65 68 64 69 71 71 69 65 61 59 59 58 58 57 58 58 58 60 63 61
55 54 69 76 77 75 66 66 66 63 65 65 64 64 65 69 71 67 68 68 63 61 60 58 57 56 57 59 58 58 61 61
49 50 61 74 76 70 64 64 64 62 64 65 64 64 64 66 69 67 67 64 64 62 61 59 57 57 57 57 58 59 59 65
47 47 50 63 66 62 62 63 61 62 63 64 63 64 64 64 65 67 67 64 65 63 63 59 59 58 58 59 60 62 62 67
44 45 45 47 49 58 61 60 61 63 63 63 64 65 64 63 63 68 67 67 66 66 67 63 62 61 60 61 63 63 66 67
40 40 43 44 45 46 48 54 59 61 62 63 62 63 63 63 65 68 64 65 67 67 67 67 66 66 66 66 66 66 66 64
37 37 39 42 43 43 44 45 47 54 55 55 58 61 63 63 66 67 66 64 64 65 65 64 65 65 64 63 64 63 62 61
37 36 37 40 41 42 42 41 42 44 44 44 47 49 51 51 52 52 56 57 59 62 63 64 64 50 37 38 47 64 64 63
33 33 34 38 41 41 39 40 41 41 42 42 42 44 45 45 47 48 48 49 50 47 47 43 40 39 36 37 37 53 60 63
32 32 33 35 39 41 40 40 39 40 40 39 41 41 41 43 43 44 46 45 43 41 41 42 39 37 36 36 36 47 50 53

GFSFLT1_sfc_temp_099.txt.gz
Temp
91 92 94 95 95 92 90 85 81 75 73 74 72 72 70 75 77 75 75 73 73 73 70 67 67 66 66 64 65 64 66 69
91 91 92 92 91 90 89 85 81 73 70 69 68 69 67 72 71 76 77 75 71 70 65 63 63 62 62 63 66 63 64 68
88 90 90 90 89 87 87 86 83 75 71 73 74 73 71 76 75 76 76 75 72 66 64 62 61 61 61 61 63 63 66 68
83 84 86 88 88 86 87 87 85 75 74 77 78 76 73 72 70 75 72 72 70 65 63 62 61 61 60 61 62 63 63 67
80 81 82 85 86 88 86 87 86 75 77 79 77 75 70 73 74 75 69 67 63 63 62 62 61 61 60 61 63 64 66 65
77 79 82 84 86 87 85 85 86 73 77 80 77 76 76 76 76 71 63 63 64 62 61 61 61 61 61 61 64 66 69 68
76 78 80 82 85 85 84 82 80 73 73 78 76 76 77 75 73 67 65 62 60 61 62 60 60 61 61 62 67 67 67 67
72 73 75 75 79 83 83 81 73 70 68 76 77 77 77 75 72 68 63 60 60 60 61 59 60 61 61 63 63 64 67 68
69 69 68 70 76 81 82 79 70 67 67 75 77 78 77 76 73 69 66 61 61 60 60 59 58 60 61 61 59 59 59 59
65 64 63 68 67 79 80 71 68 66 66 73 75 76 75 75 72 70 67 66 63 62 60 58 58 59 59 59 59 59 59 59
60 58 56 61 63 80 79 69 67 66 66 69 72 75 73 74 71 67 67 69 64 62 60 59 58 58 59 59 59 60 58 60
54 50 50 55 56 79 72 68 66 64 64 65 67 73 72 72 70 70 67 67 65 62 60 59 57 57 57 56 57 58 58 60
51 45 45 47 47 56 65 65 63 64 63 64 64 67 70 67 67 70 69 68 68 66 63 60 58 57 57 56 56 58 57 57
48 42 41 43 44 46 51 61 61 62 63 63 63 64 66 65 66 67 67 66 66 67 66 62 60 59 59 58 58 59 61 61
46 40 39 41 42 43 44 47 53 60 61 62 63 63 64 64 67 68 67 68 67 67 67 66 63 63 62 61 60 61 64 66
40 38 38 38 39 40 41 42 44 48 49 51 55 62 63 64 63 66 68 68 67 67 67 66 66 64 54 53 61 62 63 62
36 36 37 37 38 38 39 41 41 43 42 43 47 49 49 50 52 53 61 59 58 58 54 60 47 45 37 38 42 60 63 62
33 33 33 35 35 37 36 37 40 41 41 41 42 44 45 45 47 47 46 45 45 45 43 41 39 39 36 37 37 54 61 59
34 32 33 33 36 37 36 38 37 38 37 38 40 41 41 43 43 43 41 41 39 40 39 39 37 36 36 36 36 48 43 39

GFSFLT1_sfc_temp_102.txt.gz
Temp
88 88 89 89 89 84 80 76 72 71 71 73 74 73 72 72 72 72 71 70 69 69 67 66 66 66 65 65 64 64 63 62
87 86 85 84 83 83 81 77 74 70 69 69 69 68 68 69 71 73 71 70 69 68 66 65 65 65 64 65 64 63 61 62
84 84 82 81 81 81 81 79 77 73 71 71 69 69 69 69 70 71 71 70 69 67 65 64 64 64 64 64 63 61 61 61
82 81 78 78 79 78 81 81 79 75 72 71 70 70 69 67 69 70 70 70 69 67 65 63 62 62 61 61 62 62 60 60
78 78 78 77 77 78 80 80 80 77 72 70 69 69 67 67 69 70 69 68 66 66 64 63 62 62 61 61 62 62 62 59
74 75 77 79 78 76 76 78 80 76 71 71 71 71 70 70 69 69 65 65 64 64 63 62 61 61 61 61 61 61 61 61
72 73 74 74 74 72 75 77 79 74 72 72 72 71 70 69 69 66 63 62 62 62 61 61 62 61 61 61 61 62 61 61
67 67 67 66 67 69 72 77 77 72 71 72 73 72 72 70 69 66 62 60 59 60 61 59 60 60 60 61 62 61 61 61
63 62 61 59 62 63 67 63 77 71 69 71 74 74 73 71 69 68 64 61 60 60 60 60 60 60 61 60 61 61 61 61
59 57 54 52 56 57 58 59 73 68 67 68 71 72 72 70 68 67 64 62 61 61 60 59 59 60 60 59 58 58 58 58
55 51 48 49 51 52 56 66 68 66 66 67 68 71 70 70 68 65 65 62 62 60 58 59 58 58 58 59 58 58 58 58
50 47 46 46 47 48 49 66 68 65 65 65 64 66 68 68 67 66 65 63 62 61 59 58 58 58 58 58 58 58 58 58
47 45 43 43 42 44 45 47 63 64 63 62 62 64 67 67 66 65 64 63 62 61 60 58 58 58 58 57 57 58 57 57
43 42 41 40 40 41 42 44 46 60 61 61 61 61 63 64 65 66 64 64 63 61 60 58 57 57 56 57 57 56 56 57
40 39 39 40 39 39 39 41 43 47 60 60 59 59 61 62 64 65 64 64 63 63 61 60 59 58 58 57 57 57 57 58
37 37 38 38 38 38 38 39 41 43 45 46 49 55 60 61 62 64 64 64 63 63 62 62 60 56 48 52 58 57 58 58
35 35 36 36 36 37 37 38 39 41 40 41 43 46 48 50 51 54 53 52 52 50 51 47 44 42 37 38 43 57 58 59
33 33 33 34 34 35 35 36 38 38 38 39 40 42 43 44 44 44 44 44 43 41 41 40 37 37 37 38 38 52 47 45
36 33 33 33 34 34 34 36 36 36 36 37 39 39 40 40 40 39 38 39 39 38 37 37 36 36 36 38 40 42 38 37

GFSFLT1_sfc_temp_105.txt.gz
Temp
77 80 74 76 73 77 73 70 69 69 69 66 67 67 64 65 67 67 66 67 66 65 63 63 63 63 63 63 62 62 62 61
79 75 75 73 71 74 73 69 67 67 67 64 67 64 64 63 64 67 67 66 66 65 64 63 62 63 63 63 62 61 59 61
77 73 71 71 72 70 71 69 66 67 68 68 66 69 66 69 64 64 65 66 65 64 63 63 63 63 62 62 63 61 61 61
70 70 67 67 68 68 70 70 67 67 68 68 64 64 66 65 67 66 63 64 65 64 63 63 63 64 63 63 63 62 60 61
67 65 65 66 66 67 68 70 68 67 67 67 66 64 64 66 67 66 63 64 63 64 62 62 64 63 63 63 63 62 61 59
62 61 63 63 63 64 66 66 67 69 68 68 66 64 65 63 65 66 63 62 63 63 64 62 62 62 62 62 62 61 61 61
58 59 58 56 58 59 61 63 64 67 67 67 66 66 65 63 63 62 60 61 60 62 61 61 62 61 61 61 62 61 61 61
53 52 51 51 52 54 57 56 58 60 66 66 67 67 66 65 64 62 60 60 60 59 60 60 60 61 61 61 61 61 61 60
49 48 48 48 50 51 50 51 52 56 64 67 68 68 67 67 66 62 61 60 60 60 60 59 60 61 61 61 61 60 61 61
46 45 45 46 47 48 48 48 49 54 60 66 66 64 69 66 65 62 60 60 59 60 60 59 59 60 60 60 60 60 60 60
43 43 43 46 46 46 47 48 50 57 63 62 63 62 64 66 66 61 60 59 60 59 59 59 59 59 60 59 59 60 60 60
42 42 43 44 44 43 43 45 48 55 60 60 60 61 62 65 64 61 59 59 60 60 59 59 58 58 58 59 58 58 59 59
42 41 41 42 41 41 41 43 44 48 52 59 59 60 62 64 63 62 60 59 61 60 59 58 58 57 57 57 57 58 58 57
40 40 39 39 40 40 40 41 42 45 48 59 60 60 61 63 63 62 61 60 60 60 59 58 58 58 57 58 58 57 58 58
37 36 36 38 38 39 39 39 41 42 45 47 50 58 59 61 62 62 62 61 60 60 59 59 58 58 58 58 57 57 57 57
35 34 35 35 36 37 39 39 39 41 41 41 44 48 53 55 56 61 61 61 61 60 60 59 58 56 51 56 57 56 56 56
35 34 34 34 34 35 36 36 38 39 39 40 41 43 44 45 46 47 50 49 48 46 46 46 43 42 37 39 47 56 56 56
33 32 33 34 34 34 33 34 37 37 36 37 39 40 40 41 41 40 40 41 40 39 38 38 37 38 37 39 39 50 47 45
33 33 33 33 34 34 34 34 34 35 35 35 36 39 39 39 39 38 36 37 36 35 35 36 37 38 37 38 37 38 36 36

GFSFLT1_sfc_temp_108.txt.gz
Temp
72 71 72 74 67 74 72 70 70 70 67 66 65 65 65 66 65 65 66 66 65 64 64 64 63 62 63 64 64 63 62 62
73 75 71 69 65 71 71 69 68 68 66 65 64 65 64 64 65 66 65 66 65 65 64 63 62 62 63 63 62 61 60 61
74 72 65 62 63 70 70 69 67 68 70 69 67 67 65 65 64 65 66 65 65 65 64 63 62 61 61 63 62 60 61 61
63 61 59 60 60 61 66 66 66 69 70 67 63 62 62 62 62 63 64 65 65 65 64 63 62 62 62 62 62 61 59 61
57 55 54 54 56 59 61 65 66 66 65 66 65 65 63 66 67 65 64 64 64 64 62 62 62 63 63 63 63 62 61 59
50 50 52 52 53 53 57 57 61 63 64 65 64 66 66 62 63 63 64 63 63 64 62 62 62 63 63 63 62 62 62 61
48 49 50 49 50 50 53 52 55 57 60 65 66 64 62 62 62 62 64 64 63 63 63 62 63 62 62 62 63 62 62 62
43 43 43 46 47 47 50 49 49 52 53 61 65 64 64 63 62 62 61 61 61 62 62 61 61 62 62 62 62 62 62 61
41 42 43 43 45 45 45 46 48 50 50 55 65 66 64 64 63 63 62 61 61 61 61 60 60 60 61 61 61 61 61 60
41 42 42 43 43 43 43 45 46 49 50 52 62 66 63 64 64 62 61 61 60 59 60 59 59 59 60 60 60 60 60 60
40 41 41 42 42 43 43 45 44 47 49 54 62 65 64 64 63 61 61 60 59 58 58 58 59 59 59 60 60 60 60 60
39 40 41 42 42 42 42 43 43 45 48 55 61 61 60 61 62 61 61 60 59 58 58 58 58 58 59 59 59 60 59 59
38 38 39 39 39 40 41 41 42 44 46 50 59 60 59 59 60 60 61 59 59 58 58 59 58 58 58 58 57 58 59 59
37 37 37 37 38 39 38 40 41 43 44 45 48 50 59 59 60 59 60 59 59 59 59 58 58 57 57 57 58 57 58 59
36 35 35 36 37 37 37 37 40 41 42 43 43 44 48 57 60 60 60 60 60 59 59 59 58 58 57 58 57 57 57 57
34 34 34 34 35 35 36 37 37 40 39 39 40 42 44 46 51 60 60 59 59 60 58 58 57 56 50 54 57 57 56 56
33 34 34 34 34 34 35 35 36 38 38 37 38 40 41 41 42 44 46 46 46 46 45 44 44 43 38 39 44 56 56 55
30 31 32 33 33 34 33 34 36 35 35 37 37 37 37 38 39 38 38 39 41 39 39 40 39 39 38 39 41 48 45 44
31 30 32 33 34 34 34 34 34 34 33 34 35 36 35 36 35 34 34 35 35 35 35 37 37 37 36 37 37 38 36 36

GFSFLT1_sfc_temp_111.txt.gz
Temp
70 68 70 70 68 72 70 69 68 68 67 66 64 65 65 65 65 66 66 66 65 64 63 62 62 62 62 62 61 63 63 62
67 67 64 62 64 69 69 67 67 68 66 65 64 64 65 64 65 66 66 65 64 64 63 62 62 62 62 62 63 62 61 61
60 57 57 56 55 60 65 67 66 68 67 68 67 67 64 65 65 64 66 65 65 64 63 62 62 62 62 63 62 61 61 61
55 53 50 51 51 53 61 64 66 67 67 67 63 63 62 60 64 64 64 65 65 65 64 64 62 63 62 63 62 62 59 60
49 49 48 48 48 51 55 63 66 67 67 67 64 66 64 64 64 66 66 65 64 65 65 64 63 63 63 63 62 62 61 59
44 46 46 47 47 47 52 55 56 57 64 66 65 64 66 61 62 61 63 64 64 64 64 64 63 64 64 63 62 62 62 61
42 44 46 45 45 45 48 50 52 53 54 59 64 64 64 61 62 61 61 62 63 64 64 63 63 63 62 63 63 62 62 61
39 39 41 42 42 43 46 46 48 49 51 53 57 64 62 63 63 64 62 61 61 62 63 62 62 63 63 63 62 62 61 61
41 41 41 41 42 43 43 44 46 48 49 50 52 57 64 63 62 63 63 63 64 62 62 63 63 62 62 61 61 61 62 61
39 41 41 41 42 42 43 44 46 47 48 50 52 53 63 65 62 62 62 62 61 61 62 61 61 61 61 60 60 60 60 61
39 39 40 41 41 42 43 43 44 46 46 48 51 54 60 65 65 61 61 61 60 60 60 60 59 59 59 59 59 59 59 60
36 38 39 40 41 40 40 41 42 43 45 46 49 56 61 64 63 62 61 61 59 59 59 59 59 58 58 58 59 59 59 59
36 37 37 37 38 39 39 39 40 42 44 45 46 48 51 60 61 61 60 60 60 60 59 58 58 58 58 58 57 58 58 58
36 36 35 36 36 37 38 38 38 41 42 43 44 44 46 48 53 60 60 60 59 59 59 58 58 58 57 58 58 57 58 59
35 34 35 35 36 36 36 37 38 39 41 40 41 41 43 44 46 49 59 60 59 59 59 59 58 58 58 58 57 57 57 58
33 33 33 34 34 35 35 36 37 38 37 38 38 40 41 41 41 41 44 58 59 59 58 58 58 58 54 57 57 57 57 56
31 33 33 33 33 33 34 34 35 36 36 35 37 39 39 39 39 39 38 39 43 48 48 48 46 44 38 39 46 57 56 56
29 30 32 32 32 32 31 32 33 33 33 35 35 37 37 37 37 37 36 35 35 36 38 40 39 38 39 40 41 50 48 46
29 30 31 32 33 33 31 31 31 31 31 32 33 34 35 36 35 34 34 34 33 33 33 35 36 36 36 37 37 39 37 36

GFSFLT1_sfc_temp_114.txt.gz
Temp
69 64 68 72 70 71 69 68 67 67 67 67 67 66 66 65 65 65 64 65 64 63 63 62 63 63 63 62 62 62 60 61
60 58 56 59 60 67 69 66 66 67 67 66 66 65 65 65 65 65 65 64 64 63 62 62 63 63 63 62 62 62 61 62
54 51 49 49 50 54 62 66 66 67 69 69 67 68 68 67 66 65 65 64 64 64 63 62 63 63 62 62 62 61 61 61
49 49 46 45 45 48 54 63 65 67 68 67 63 64 63 63 65 64 64 64 64 64 64 63 62 63 62 62 62 62 59 60
44 44 44 43 44 48 50 56 63 66 68 67 66 65 64 66 66 66 65 64 65 65 64 63 63 63 63 63 63 62 62 59
39 41 43 43 44 46 48 54 54 54 57 67 66 65 64 62 63 65 65 65 65 65 65 64 63 63 64 63 62 62 62 62
41 42 43 42 43 45 48 51 51 52 53 55 62 65 64 61 62 63 64 64 64 64 65 65 65 64 63 63 63 62 62 62
40 40 41 43 43 44 46 47 48 50 51 52 53 55 65 63 62 63 63 63 62 63 63 63 64 64 64 64 63 62 62 61
39 40 40 41 42 42 44 45 46 48 49 50 53 54 55 63 63 63 62 63 63 65 64 63 64 63 63 63 63 62 62 61
38 39 40 40 40 41 41 43 44 46 47 49 50 52 54 57 63 62 61 61 62 60 63 62 63 63 63 62 62 60 60 61
37 38 39 40 40 41 42 42 42 44 45 47 49 50 54 55 60 62 62 61 60 60 61 62 62 62 62 61 61 61 60 60
35 36 37 39 40 40 39 40 40 42 43 45 46 47 49 54 59 63 62 62 60 60 61 61 61 61 60 60 59 59 58 58
33 34 35 35 37 38 37 38 38 40 42 43 44 45 46 47 49 50 62 61 61 61 60 60 59 59 59 58 58 58 58 58
34 33 34 35 35 36 36 37 37 39 40 41 41 42 43 43 44 46 48 60 60 60 60 59 59 58 58 58 58 57 58 59
32 32 33 34 34 34 34 35 36 38 38 38 38 39 40 41 42 43 44 46 54 59 59 59 59 59 58 58 57 57 58 58
31 31 31 33 32 33 33 33 34 36 36 36 37 38 39 40 40 41 42 41 42 44 54 58 58 58 55 57 57 57 57 57
30 31 31 31 32 31 31 31 33 35 34 34 36 37 37 37 38 38 39 39 39 38 38 41 41 42 38 40 51 57 56 56
28 28 29 30 31 30 29 30 32 32 32 33 33 35 35 35 36 36 35 36 37 36 36 36 36 36 37 37 40 52 52 48
27 28 29 29 31 29 29 30 29 29 29 30 31 32 33 34 34 33 33 33 33 34 34 35 35 35 35 36 36 38 37 36

GFSFLT1_sfc_temp_117.txt.gz
Temp
68 71 73 74 79 78 77 73 72 72 72 70 72 70 72 73 73 73 69 69 69 70 68 68 67 66 64 66 66 68 69 71
68 66 61 60 71 75 76 73 72 71 71 68 68 66 68 69 74 73 70 69 69 69 67 66 66 65 65 65 65 64 65 69
65 57 55 55 56 61 73 73 73 71 73 71 71 68 70 70 70 70 70 70 69 69 67 65 65 65 64 64 64 62 63 65
52 52 51 52 52 55 60 69 73 71 71 70 69 69 68 66 68 68 68 71 69 69 68 67 66 65 64 64 64 64 61 62
47 48 48 48 50 53 58 60 69 70 69 69 67 68 65 68 69 69 67 69 69 70 69 68 66 66 65 64 64 64 65 61
43 44 46 47 49 50 53 56 56 57 64 68 66 67 69 69 68 66 67 67 68 69 68 67 66 66 67 66 65 64 65 66
42 44 45 45 47 48 50 54 54 54 56 57 65 68 68 66 67 65 66 67 66 67 68 67 67 67 68 67 66 65 65 65
40 40 41 42 42 44 48 51 50 51 52 54 54 55 60 66 67 68 66 66 65 66 66 65 66 67 66 68 67 66 65 63
39 39 39 40 41 42 43 47 48 50 52 52 55 55 55 57 66 68 68 67 66 67 65 66 66 66 66 66 66 65 65 64
36 38 39 40 40 40 41 42 44 46 48 49 51 52 53 56 57 63 66 68 67 66 66 65 65 65 65 64 64 64 63 63
35 37 38 39 40 41 41 42 42 43 45 47 48 50 51 53 57 57 62 64 66 65 65 64 64 64 64 64 64 64 62 62
33 35 37 38 39 39 39 39 41 41 42 44 45 46 48 49 51 56 55 63 63 63 63 63 63 62 63 62 63 63 62 61
32 33 35 35 36 37 37 37 38 40 41 42 42 43 45 46 46 48 51 52 63 63 62 62 62 63 63 62 61 61 61 60
32 31 32 32 34 35 35 36 37 39 40 40 40 40 41 42 43 45 46 48 51 59 62 61 61 61 61 61 61 60 60 60
30 31 31 31 32 32 33 34 37 39 39 38 38 39 39 40 41 43 43 45 44 46 47 57 60 59 59 59 60 60 60 60
30 29 30 31 30 32 33 33 35 37 36 36 36 38 39 39 39 40 41 41 42 43 42 42 43 42 41 42 51 58 59 59
29 30 30 31 31 30 31 32 33 34 34 34 36 37 37 36 37 37 38 38 39 39 39 40 38 40 37 38 40 51 58 58
28 28 28 30 31 31 29 30 33 32 32 32 33 35 35 35 35 36 35 35 36 36 36 37 36 36 36 37 39 40 44 49
27 27 27 29 32 32 32 31 31 30 29 30 31 32 34 35 34 34 33 33 33 33 33 34 34 34 35 36 36 36 35 35

GFSFLT1_sfc_temp_120.txt.gz
Temp
73 75 77 80 82 82 82 84 82 79 80 79 80 80 81 84 84 82 74 72 72 72 72 72 71 71 70 69 71 77 77 77
73 73 75 76 77 75 78 80 83 81 79 78 79 78 80 81 84 82 79 72 71 72 71 70 70 70 69 68 69 71 72 75
69 71 73 69 68 69 74 80 83 82 81 82 82 80 80 82 83 82 80 72 71 72 71 70 69 69 69 68 66 67 69 70
59 62 63 63 64 65 69 76 84 82 79 80 81 81 80 78 79 80 77 76 72 71 71 70 69 69 68 68 67 67 66 66
49 50 51 53 55 57 64 69 70 76 73 76 74 77 74 76 78 79 75 74 77 72 72 70 69 68 69 68 69 67 69 63
42 44 46 48 48 50 56 59 56 57 71 73 71 77 79 79 78 76 73 71 75 75 73 71 70 70 70 69 66 66 67 68
40 42 44 44 45 46 51 54 52 54 57 64 69 67 74 76 73 72 70 70 69 70 76 72 71 71 70 69 68 68 67 68
36 38 40 42 41 43 47 50 50 52 54 56 59 59 63 71 73 72 69 68 66 68 71 70 70 70 71 69 68 69 69 69
34 34 38 39 41 41 43 45 46 50 51 54 56 57 57 59 62 65 73 70 69 70 69 69 70 70 70 72 70 71 71 70
32 34 37 38 40 39 40 43 44 46 48 52 52 54 54 55 57 59 59 69 69 70 67 66 66 67 68 69 70 67 69 69
32 33 35 37 39 39 39 42 42 43 46 48 50 51 52 53 55 57 59 59 64 67 66 65 67 66 66 65 67 66 65 66
31 32 34 35 38 39 38 40 41 42 43 44 45 47 48 49 50 52 54 56 56 64 65 65 65 65 63 62 63 64 64 64
31 31 32 33 34 36 37 38 39 40 42 42 42 43 44 45 45 47 50 52 53 57 64 65 64 64 64 62 62 63 63 62
31 31 30 30 32 34 37 37 40 42 42 42 41 41 41 42 42 44 45 47 49 50 50 53 61 62 63 63 62 62 62 63
30 31 31 31 31 32 34 37 40 42 42 42 40 40 41 41 41 42 43 44 45 45 45 45 45 45 44 45 51 60 62 62
30 30 30 32 31 31 36 37 38 39 40 40 41 40 40 41 40 40 41 41 42 42 43 41 41 41 40 40 44 49 57 60
30 31 31 31 32 33 33 35 36 39 39 37 39 41 41 38 39 39 39 38 39 39 39 38 37 38 36 37 40 49 47 53
28 28 30 30 32 34 32 34 36 36 36 37 38 39 39 39 38 37 35 36 36 36 36 37 36 35 36 37 37 41 39 38
30 29 30 31 33 34 36 35 35 33 32 33 35 36 37 38 37 37 36 35 34 33 33 35 35 35 35 35 37 40 37 36

GFSFLT1_sfc_temp_123.txt.gz
Temp
73 76 80 81 82 81 81 82 83 82 77 79 82 83 82 83 85 85 77 73 74 74 75 74 76 75 71 76 75 77 76 74
66 69 73 76 77 77 79 78 80 82 77 74 78 79 81 82 87 87 78 73 72 73 74 74 73 73 73 72 73 75 74 76
57 59 63 69 68 71 74 75 75 78 84 78 77 82 83 85 87 86 84 75 72 74 72 72 71 72 70 71 71 71 73 74
47 49 52 58 59 61 66 68 73 75 78 80 75 83 83 84 85 85 83 79 72 72 73 71 70 71 70 71 70 70 70 73
43 43 44 48 50 54 56 61 68 72 70 71 73 79 81 82 84 85 85 82 74 72 72 71 70 70 69 71 72 71 70 65
41 40 40 43 46 46 48 53 60 61 62 64 75 72 83 84 84 83 83 80 79 74 72 71 69 69 70 71 70 71 72 69
44 42 40 40 43 44 45 49 53 53 57 68 78 72 78 75 80 81 80 77 78 78 75 72 71 70 69 70 70 70 70 70
39 36 35 36 39 41 43 47 49 50 53 56 57 70 71 75 66 71 70 68 71 76 77 74 71 70 70 70 69 68 70 67
34 32 34 34 37 38 42 44 45 47 50 52 54 55 60 62 59 60 66 69 69 72 73 73 72 71 70 69 69 68 69 67
32 32 33 33 34 34 39 42 44 45 46 49 51 52 56 56 58 59 60 61 64 70 71 69 69 68 68 69 67 71 70 69
32 32 32 33 33 36 40 42 42 43 45 47 48 49 51 51 51 53 54 57 59 59 68 70 67 66 67 67 67 68 67 67
31 31 32 33 34 34 38 43 42 41 43 43 44 46 47 47 47 48 51 55 54 55 61 66 66 66 64 64 64 65 65 64
31 31 32 32 32 34 37 37 40 41 43 43 43 44 43 43 43 45 48 50 51 50 52 52 59 64 65 63 62 63 64 65
31 31 30 31 32 32 34 37 36 38 41 42 42 41 41 41 41 42 44 44 45 46 46 45 45 45 45 46 48 59 62 63
31 31 30 32 32 32 34 36 39 39 40 42 41 40 40 41 42 41 41 41 41 41 43 42 42 41 41 42 45 48 51 58
30 30 30 31 33 33 34 36 38 41 41 41 42 44 43 42 41 40 39 39 40 40 41 39 39 39 39 39 43 48 50 50
31 31 31 31 34 35 37 37 37 39 39 38 41 42 41 40 39 39 39 38 38 38 38 38 37 38 36 38 40 42 42 41
30 30 31 32 33 36 35 37 37 36 35 36 38 40 40 40 41 39 37 36 36 35 35 36 35 36 36 36 38 38 37 36
34 32 32 33 35 36 36 36 37 35 33 34 36 37 37 38 37 38 37 37 35 35 34 34 34 34 35 36 36 37 35 34

GFSFLT1_sfc_temp_126.txt.gz
Temp
60 60 61 61 63 63 65 66 71 70 70 72 72 72 73 76 75 75 75 74 74 74 75 74 73 72 71 71 69 70 69 68
58 57 56 56 57 58 60 60 64 70 71 68 69 69 70 73 77 76 75 74 73 73 73 71 71 71 70 69 69 68 67 68
53 52 51 50 51 53 54 56 58 60 66 71 68 69 70 74 76 77 76 74 73 73 73 71 70 71 69 69 70 67 67 68
47 49 48 48 47 48 51 52 53 56 59 65 67 64 69 69 74 76 75 74 72 72 72 72 71 71 69 69 69 68 65 67
46 45 45 45 45 47 48 49 50 53 56 58 60 58 58 69 73 77 75 73 72 71 72 71 72 70 70 69 70 68 69 65
42 42 42 43 43 43 44 46 47 50 52 56 54 55 58 65 73 76 76 72 72 71 71 70 70 69 69 69 68 68 68 66
40 40 39 39 41 40 40 41 45 48 51 52 54 56 58 61 71 74 76 73 70 70 71 69 69 69 69 68 69 68 68 67
37 35 35 36 36 37 37 38 42 46 47 51 54 57 59 63 69 74 74 72 70 68 69 68 68 69 69 68 68 67 67 67
35 32 33 34 35 35 35 36 40 44 46 50 51 53 56 57 56 61 65 66 68 70 68 69 68 68 67 67 67 67 67 66
33 32 33 33 32 32 33 35 40 43 45 47 48 48 50 52 52 53 57 57 59 59 65 67 68 68 67 66 66 65 65 65
33 32 32 33 32 32 34 36 38 41 43 44 45 45 47 48 50 49 50 51 52 54 55 62 65 65 65 66 65 66 65 65
32 32 32 33 33 32 32 35 37 39 41 41 41 42 43 43 44 45 46 47 48 49 50 50 51 55 60 63 64 65 65 65
31 32 32 32 32 33 32 34 37 36 41 40 40 41 41 41 40 42 43 43 43 44 45 46 46 45 46 48 50 58 61 62
31 31 31 31 32 32 32 33 36 39 40 40 37 36 38 38 39 40 40 41 41 41 41 41 41 42 42 44 46 48 52 54
30 30 30 31 32 32 33 33 35 37 39 37 36 36 36 38 38 38 38 39 39 40 39 39 39 39 40 42 46 48 48 49
32 30 30 31 32 32 33 33 35 37 37 36 36 36 38 36 36 36 36 36 37 38 37 36 37 38 38 39 43 42 41 41
33 33 33 32 33 34 35 36 34 36 36 36 38 37 37 38 37 37 37 36 36 36 36 35 34 36 36 37 38 39 38 37
32 32 33 34 34 35 34 36 36 35 34 35 36 37 37 37 38 37 36 35 35 34 35 35 33 34 35 37 37 36 35 34
36 33 33 35 36 37 37 37 36 34 33 34 35 36 36 36 37 36 35 36 34 33 33 34 33 34 35 36 37 36 34 33

GFSFLT1_sfc_temp_129.txt.gz
Temp
53 53 52 52 50 50 50 51 52 54 54 57 60 66 68 70 71 70 71 71 71 71 69 68 70 69 68 67 66 64 64 64
50 50 49 50 49 48 48 47 49 50 51 51 53 55 63 66 69 73 72 71 71 71 68 68 69 68 68 68 65 65 63 64
46 46 46 45 45 45 46 46 46 48 49 50 51 53 58 61 67 71 71 72 71 71 71 69 70 69 67 66 66 63 64 64
41 41 41 41 41 42 44 45 44 45 47 49 51 52 56 57 61 66 71 71 72 71 71 70 67 68 67 67 66 66 63 63
39 38 37 37 38 40 41 41 41 44 45 46 46 47 50 54 57 61 66 71 71 71 72 71 69 68 67 67 68 66 65 62
37 36 36 37 37 39 40 40 40 42 44 46 48 49 51 52 55 59 61 67 71 71 72 71 72 70 68 68 68 69 67 66
38 37 36 35 36 36 37 37 39 40 43 46 46 46 48 50 53 56 58 62 68 71 71 71 71 70 69 69 69 68 68 67
34 32 32 34 34 34 35 35 36 38 41 45 46 48 51 52 53 56 59 58 61 69 70 69 69 69 69 68 67 67 67 66
32 31 32 33 33 33 34 35 35 38 41 43 46 49 51 55 55 57 58 55 55 68 68 68 68 68 67 67 66 66 66 65
30 31 32 33 32 32 33 34 35 36 39 43 44 45 47 51 53 52 55 52 55 57 67 66 67 66 66 65 65 64 65 65
30 30 31 32 32 33 34 35 34 35 37 40 42 43 44 46 46 46 49 53 52 49 51 56 62 63 65 65 64 64 64 64
29 30 31 33 33 33 33 33 33 33 35 37 39 40 41 42 42 42 43 46 46 45 47 47 48 49 51 54 58 61 64 64
29 31 31 32 32 32 32 32 32 33 33 33 37 39 39 38 38 39 41 41 42 41 42 42 42 45 46 48 49 52 54 54
29 30 30 31 32 32 32 32 32 33 34 33 37 38 37 37 35 36 37 38 38 38 39 39 39 40 43 46 47 46 47 47
30 30 31 32 33 32 32 32 32 33 34 37 35 35 37 37 36 34 34 35 34 34 35 36 37 38 39 41 41 42 42 43
30 30 30 32 33 33 34 35 35 35 35 35 35 36 36 36 35 35 35 34 33 34 34 34 35 36 36 37 38 38 38 38
32 33 32 32 34 34 35 35 34 35 35 35 36 37 37 35 34 34 34 34 34 34 33 34 33 35 37 37 36 35 35 35
30 29 32 32 33 35 34 35 35 34 34 34 35 36 35 36 36 35 34 33 33 32 32 32 32 34 35 36 36 35 34 33
32 30 30 32 34 35 34 34 35 34 33 34 34 34 33 34 35 34 34 34 32 31 31 31 31 33 35 35 35 34 33 33